Wetterdaten: Dienstag, 15.06.2010
Datum Zeit Temp. Innen Temp. Aussen UV X Diff Temp. Feuchte Inne Feuchte Auss Sonnenschein Luftdruck Regen ab 0,1 Wind Sonnenschein Windben
15.06.2010 00:00 21,8 C 17,7 C 0,0 UV-I 0,0 C 51 % 60 % 0 % 1020,5 hPa 0,0 l/m 7,2 km/h (2 Bft) 0 min 7,4 km/h (2 Bft)
15.06.2010 00:02 21,8 C 17,7 C 0,0 UV-I 0,0 C 51 % 60 % 0 % 1020,5 hPa 0,0 l/m 7,2 km/h (2 Bft) 0 min 7,4 km/h (2 Bft)
15.06.2010 00:04 21,8 C 17,7 C 0,0 UV-I 0,0 C 51 % 60 % 0 % 1020,5 hPa 0,0 l/m 7,6 km/h (2 Bft) 0 min 8,0 km/h (2 Bft)
15.06.2010 00:06 21,8 C 17,7 C 0,0 UV-I 0,0 C 51 % 60 % 0 % 1020,5 hPa 0,0 l/m 8,0 km/h (2 Bft) 0 min 5,1 km/h (1 Bft)
15.06.2010 00:08 21,8 C 17,6 C 0,0 UV-I 0,0 C 51 % 60 % 0 % 1020,5 hPa 0,0 l/m 6,8 km/h (2 Bft) 0 min 3,2 km/h (1 Bft)
15.06.2010 00:10 21,8 C 17,7 C 0,0 UV-I 0,0 C 51 % 61 % 0 % 1020,5 hPa 0,0 l/m 6,8 km/h (2 Bft) 0 min 3,2 km/h (1 Bft)
15.06.2010 00:12 21,8 C 17,6 C 0,0 UV-I 0,0 C 51 % 61 % 0 % 1020,9 hPa 0,0 l/m 6,8 km/h (2 Bft) 0 min 6,4 km/h (2 Bft)
15.06.2010 00:14 21,8 C 17,5 C 0,0 UV-I 0,0 C 51 % 61 % 0 % 1020,9 hPa 0,0 l/m 6,4 km/h (2 Bft) 0 min 10,9 km/h (2 Bft)
15.06.2010 00:16 21,8 C 17,5 C 0,0 UV-I 0,0 C 51 % 61 % 0 % 1020,9 hPa 0,0 l/m 7,2 km/h (2 Bft) 0 min 8,4 km/h (2 Bft)
15.06.2010 00:18 21,8 C 17,5 C 0,0 UV-I 0,0 C 51 % 61 % 0 % 1020,9 hPa 0,0 l/m 7,6 km/h (2 Bft) 0 min 10,6 km/h (2 Bft)
15.06.2010 00:20 21,8 C 17,4 C 0,0 UV-I 0,0 C 51 % 61 % 0 % 1020,9 hPa 0,0 l/m 9,2 km/h (2 Bft) 0 min 8,7 km/h (2 Bft)
15.06.2010 00:22 21,8 C 17,5 C 0,0 UV-I 0,0 C 51 % 61 % 0 % 1020,9 hPa 0,0 l/m 9,2 km/h (2 Bft) 0 min 8,7 km/h (2 Bft)
15.06.2010 00:26 21,8 C 17,3 C 0,0 UV-I 0,0 C 51 % 61 % 0 % 1020,9 hPa 0,0 l/m 9,2 km/h (2 Bft) 0 min 9,3 km/h (2 Bft)
15.06.2010 00:28 21,8 C 17,2 C 0,0 UV-I 0,0 C 51 % 62 % 0 % 1020,9 hPa 0,0 l/m 9,6 km/h (2 Bft) 0 min 13,5 km/h (3 Bft)
15.06.2010 00:30 21,8 C 17,3 C 0,0 UV-I 0,0 C 51 % 62 % 0 % 1020,9 hPa 0,0 l/m 9,6 km/h (2 Bft) 0 min 13,5 km/h (3 Bft)
15.06.2010 00:32 21,8 C 17,2 C 0,0 UV-I 0,0 C 51 % 62 % 0 % 1021,3 hPa 0,0 l/m 9,6 km/h (2 Bft) 0 min 11,6 km/h (2 Bft)
15.06.2010 00:34 21,8 C 17,2 C 0,0 UV-I 0,0 C 51 % 62 % 0 % 1021,3 hPa 0,0 l/m 8,8 km/h (2 Bft) 0 min 7,7 km/h (2 Bft)
15.06.2010 00:36 21,8 C 17,1 C 0,0 UV-I 0,0 C 51 % 62 % 0 % 1021,3 hPa 0,0 l/m 9,2 km/h (2 Bft) 0 min 10,6 km/h (2 Bft)
15.06.2010 00:38 21,8 C 17,0 C 0,0 UV-I 0,0 C 51 % 62 % 0 % 1021,3 hPa 0,0 l/m 9,6 km/h (2 Bft) 0 min 9,7 km/h (2 Bft)
15.06.2010 00:42 21,8 C 17,1 C 0,0 UV-I 0,0 C 51 % 62 % 0 % 1021,3 hPa 0,0 l/m 8,8 km/h (2 Bft) 0 min 10,3 km/h (2 Bft)
15.06.2010 00:44 21,7 C 16,9 C 0,0 UV-I 0,0 C 51 % 63 % 0 % 1021,3 hPa 0,0 l/m 8,8 km/h (2 Bft) 0 min 8,4 km/h (2 Bft)
15.06.2010 00:48 21,7 C 16,8 C 0,0 UV-I 0,0 C 51 % 63 % 0 % 1021,3 hPa 0,0 l/m 9,6 km/h (2 Bft) 0 min 10,9 km/h (2 Bft)
15.06.2010 00:50 21,7 C 16,8 C 0,0 UV-I 0,0 C 51 % 63 % 0 % 1021,3 hPa 0,0 l/m 9,6 km/h (2 Bft) 0 min 10,9 km/h (2 Bft)
15.06.2010 00:52 21,7 C 16,9 C 0,0 UV-I 0,0 C 51 % 63 % 0 % 1021,5 hPa 0,0 l/m 10,0 km/h (2 Bft) 0 min 18,0 km/h (3 Bft)
15.06.2010 00:54 21,7 C 16,8 C 0,0 UV-I 0,0 C 51 % 63 % 0 % 1021,5 hPa 0,0 l/m 9,6 km/h (2 Bft) 0 min 7,1 km/h (2 Bft)
15.06.2010 00:56 21,7 C 16,8 C 0,0 UV-I 0,0 C 51 % 63 % 0 % 1021,5 hPa 0,0 l/m 10,0 km/h (2 Bft) 0 min 13,5 km/h (3 Bft)
15.06.2010 00:58 21,7 C 16,7 C 0,0 UV-I 0,0 C 51 % 63 % 0 % 1021,5 hPa 0,0 l/m 10,0 km/h (2 Bft) 0 min 5,8 km/h (2 Bft)
15.06.2010 01:00 21,7 C 16,7 C 0,0 UV-I 0,0 C 51 % 64 % 0 % 1021,5 hPa 0,0 l/m 9,2 km/h (2 Bft) 0 min 18,0 km/h (3 Bft)
15.06.2010 01:02 21,7 C 16,7 C 0,0 UV-I 0,0 C 51 % 64 % 0 % 1021,5 hPa 0,0 l/m 8,8 km/h (2 Bft) 0 min 5,8 km/h (2 Bft)
15.06.2010 01:04 21,7 C 16,7 C 0,0 UV-I 0,0 C 51 % 64 % 0 % 1021,5 hPa 0,0 l/m 8,4 km/h (2 Bft) 0 min 16,4 km/h (3 Bft)
15.06.2010 01:06 21,7 C 16,6 C 0,0 UV-I 0,0 C 51 % 65 % 0 % 1021,5 hPa 0,0 l/m 9,2 km/h (2 Bft) 0 min 20,6 km/h (4 Bft)
15.06.2010 01:08 21,7 C 16,6 C 0,0 UV-I 0,0 C 51 % 65 % 0 % 1021,5 hPa 0,0 l/m 9,2 km/h (2 Bft) 0 min 6,8 km/h (2 Bft)
15.06.2010 01:10 21,6 C 16,7 C 0,0 UV-I 0,0 C 51 % 65 % 0 % 1021,5 hPa 0,0 l/m 9,2 km/h (2 Bft) 0 min 20,6 km/h (4 Bft)
15.06.2010 01:12 21,6 C 16,7 C 0,0 UV-I 0,0 C 51 % 65 % 0 % 1021,6 hPa 0,0 l/m 9,6 km/h (2 Bft) 0 min 7,4 km/h (2 Bft)
15.06.2010 01:14 21,6 C 16,5 C 0,0 UV-I 0,0 C 51 % 66 % 0 % 1021,6 hPa 0,0 l/m 9,6 km/h (2 Bft) 0 min 10,0 km/h (2 Bft)
15.06.2010 01:16 21,6 C 16,5 C 0,0 UV-I 0,0 C 51 % 66 % 0 % 1021,6 hPa 0,0 l/m 9,6 km/h (2 Bft) 0 min 12,6 km/h (3 Bft)
15.06.2010 01:18 21,6 C 16,5 C 0,0 UV-I 0,0 C 51 % 66 % 0 % 1021,6 hPa 0,0 l/m 9,6 km/h (2 Bft) 0 min 8,4 km/h (2 Bft)
15.06.2010 01:20 21,6 C 16,5 C 0,0 UV-I 0,0 C 51 % 66 % 0 % 1021,6 hPa 0,0 l/m 10,0 km/h (2 Bft) 0 min 12,2 km/h (2 Bft)
15.06.2010 01:22 21,6 C 16,5 C 0,0 UV-I 0,0 C 51 % 66 % 0 % 1021,6 hPa 0,0 l/m 10,0 km/h (2 Bft) 0 min 12,2 km/h (2 Bft)
15.06.2010 01:24 21,6 C 16,4 C 0,0 UV-I 0,0 C 51 % 67 % 0 % 1021,6 hPa 0,0 l/m 10,8 km/h (2 Bft) 0 min 10,3 km/h (2 Bft)
15.06.2010 01:26 21,6 C 16,4 C 0,0 UV-I 0,0 C 51 % 67 % 0 % 1021,6 hPa 0,0 l/m 10,4 km/h (2 Bft) 0 min 15,8 km/h (3 Bft)
15.06.2010 01:28 21,6 C 16,5 C 0,0 UV-I 0,0 C 51 % 67 % 0 % 1021,6 hPa 0,0 l/m 10,0 km/h (2 Bft) 0 min 14,5 km/h (3 Bft)
15.06.2010 01:30 21,6 C 16,4 C 0,0 UV-I 0,0 C 51 % 67 % 0 % 1021,6 hPa 0,0 l/m 10,0 km/h (2 Bft) 0 min 14,5 km/h (3 Bft)
15.06.2010 01:32 21,6 C 16,4 C 0,0 UV-I 0,0 C 51 % 68 % 0 % 1021,7 hPa 0,0 l/m 10,4 km/h (2 Bft) 0 min 16,4 km/h (3 Bft)
15.06.2010 01:34 21,6 C 16,3 C 0,0 UV-I 0,0 C 51 % 68 % 0 % 1021,7 hPa 0,0 l/m 10,8 km/h (2 Bft) 0 min 10,6 km/h (2 Bft)
15.06.2010 01:36 21,6 C 16,2 C 0,0 UV-I 0,0 C 51 % 68 % 0 % 1021,7 hPa 0,0 l/m 10,8 km/h (2 Bft) 0 min 8,4 km/h (2 Bft)
15.06.2010 01:38 21,6 C 16,3 C 0,0 UV-I 0,0 C 51 % 68 % 0 % 1021,7 hPa 0,0 l/m 11,2 km/h (2 Bft) 0 min 8,0 km/h (2 Bft)
15.06.2010 01:40 21,6 C 16,2 C 0,0 UV-I 0,0 C 52 % 68 % 0 % 1021,7 hPa 0,0 l/m 10,8 km/h (2 Bft) 0 min 14,5 km/h (3 Bft)
15.06.2010 01:42 21,6 C 16,1 C 0,1 UV-I 0,0 C 51 % 69 % 0 % 1021,7 hPa 0,0 l/m 10,4 km/h (2 Bft) 0 min 9,0 km/h (2 Bft)
15.06.2010 01:44 21,6 C 16,0 C 0,1 UV-I 0,0 C 52 % 69 % 0 % 1021,7 hPa 0,0 l/m 9,6 km/h (2 Bft) 0 min 8,0 km/h (2 Bft)
15.06.2010 01:46 21,6 C 16,0 C 0,1 UV-I 0,0 C 52 % 70 % 0 % 1021,7 hPa 0,0 l/m 9,2 km/h (2 Bft) 0 min 11,9 km/h (2 Bft)
15.06.2010 01:48 21,6 C 15,9 C 0,1 UV-I 0,0 C 52 % 70 % 0 % 1021,7 hPa 0,0 l/m 9,2 km/h (2 Bft) 0 min 8,4 km/h (2 Bft)
15.06.2010 01:50 21,6 C 15,9 C 0,1 UV-I 0,0 C 52 % 71 % 0 % 1021,7 hPa 0,0 l/m 9,2 km/h (2 Bft) 0 min 8,4 km/h (2 Bft)
15.06.2010 01:52 21,5 C 15,9 C 0,0 UV-I 0,0 C 52 % 71 % 0 % 1021,8 hPa 0,0 l/m 11,2 km/h (2 Bft) 0 min 12,9 km/h (3 Bft)
15.06.2010 01:54 21,5 C 15,7 C 0,0 UV-I 0,0 C 52 % 71 % 0 % 1021,8 hPa 0,0 l/m 11,6 km/h (2 Bft) 0 min 16,1 km/h (3 Bft)
15.06.2010 01:56 21,5 C 15,6 C 0,0 UV-I 0,0 C 52 % 72 % 0 % 1021,8 hPa 0,0 l/m 12,4 km/h (3 Bft) 0 min 15,4 km/h (3 Bft)
15.06.2010 01:58 21,5 C 15,6 C 0,0 UV-I 0,0 C 52 % 72 % 0 % 1021,8 hPa 0,0 l/m 12,0 km/h (2 Bft) 0 min 9,0 km/h (2 Bft)
15.06.2010 02:00 21,5 C 15,6 C 0,0 UV-I 0,0 C 52 % 73 % 0 % 1021,8 hPa 0,0 l/m 12,4 km/h (3 Bft) 0 min 9,7 km/h (2 Bft)
15.06.2010 02:02 21,5 C 15,5 C 0,0 UV-I 0,0 C 52 % 73 % 0 % 1021,8 hPa 0,0 l/m 10,8 km/h (2 Bft) 0 min 8,7 km/h (2 Bft)
15.06.2010 02:04 21,5 C 15,4 C 0,0 UV-I 0,0 C 52 % 73 % 0 % 1021,8 hPa 0,0 l/m 10,8 km/h (2 Bft) 0 min 8,7 km/h (2 Bft)
15.06.2010 02:06 21,5 C 15,5 C 0,0 UV-I 0,0 C 52 % 73 % 0 % 1021,8 hPa 0,0 l/m 11,6 km/h (2 Bft) 0 min 17,1 km/h (3 Bft)
15.06.2010 02:08 21,5 C 15,3 C 0,0 UV-I 0,0 C 52 % 74 % 0 % 1021,8 hPa 0,0 l/m 11,2 km/h (2 Bft) 0 min 11,9 km/h (2 Bft)
15.06.2010 02:10 21,5 C 15,3 C 0,0 UV-I 0,0 C 52 % 74 % 0 % 1021,8 hPa 0,0 l/m 11,2 km/h (2 Bft) 0 min 11,9 km/h (2 Bft)
15.06.2010 02:14 21,4 C 15,1 C 0,0 UV-I 0,0 C 52 % 75 % 0 % 1021,5 hPa 0,0 l/m 12,4 km/h (3 Bft) 0 min 13,8 km/h (3 Bft)
15.06.2010 02:16 21,4 C 15,1 C 0,0 UV-I 0,0 C 52 % 75 % 0 % 1021,5 hPa 0,0 l/m 12,0 km/h (2 Bft) 0 min 13,2 km/h (3 Bft)
15.06.2010 02:18 21,4 C 15,1 C 0,0 UV-I 0,0 C 52 % 76 % 0 % 1021,5 hPa 0,0 l/m 10,8 km/h (2 Bft) 0 min 6,1 km/h (2 Bft)
15.06.2010 02:20 21,4 C 14,9 C 0,0 UV-I 0,0 C 52 % 76 % 0 % 1021,5 hPa 0,0 l/m 10,4 km/h (2 Bft) 0 min 6,1 km/h (2 Bft)
15.06.2010 02:22 21,4 C 14,8 C 0,0 UV-I 0,0 C 52 % 76 % 0 % 1021,5 hPa 0,0 l/m 10,4 km/h (2 Bft) 0 min 11,9 km/h (2 Bft)
15.06.2010 02:24 21,4 C 14,8 C 0,0 UV-I 0,0 C 52 % 77 % 0 % 1021,5 hPa 0,0 l/m 10,8 km/h (2 Bft) 0 min 18,3 km/h (3 Bft)
15.06.2010 02:26 21,4 C 14,8 C 0,0 UV-I 0,0 C 52 % 77 % 0 % 1021,5 hPa 0,0 l/m 11,2 km/h (2 Bft) 0 min 11,3 km/h (2 Bft)
15.06.2010 02:30 21,4 C 14,7 C 0,0 UV-I 0,0 C 53 % 77 % 0 % 1021,5 hPa 0,0 l/m 11,6 km/h (2 Bft) 0 min 12,9 km/h (3 Bft)
15.06.2010 02:32 21,4 C 14,7 C 0,0 UV-I 0,0 C 53 % 77 % 0 % 1021,4 hPa 0,0 l/m 12,0 km/h (2 Bft) 0 min 8,0 km/h (2 Bft)
15.06.2010 02:34 21,4 C 14,5 C 0,0 UV-I 0,0 C 52 % 78 % 0 % 1021,4 hPa 0,0 l/m 11,6 km/h (2 Bft) 0 min 9,0 km/h (2 Bft)
15.06.2010 02:36 21,2 C 14,5 C 0,0 UV-I 0,0 C 53 % 78 % 0 % 1021,4 hPa 0,0 l/m 10,8 km/h (2 Bft) 0 min 12,9 km/h (3 Bft)
15.06.2010 02:38 21,2 C 14,5 C 0,0 UV-I 0,0 C 53 % 79 % 0 % 1021,4 hPa 0,0 l/m 11,6 km/h (2 Bft) 0 min 21,6 km/h (4 Bft)
15.06.2010 02:40 21,2 C 14,4 C 0,0 UV-I 0,0 C 53 % 79 % 0 % 1021,4 hPa 0,0 l/m 12,0 km/h (2 Bft) 0 min 21,6 km/h (4 Bft)
15.06.2010 02:42 21,2 C 14,4 C 0,0 UV-I 0,0 C 53 % 79 % 0 % 1021,4 hPa 0,0 l/m 13,3 km/h (3 Bft) 0 min 23,2 km/h (4 Bft)
15.06.2010 02:46 21,2 C 14,3 C 0,0 UV-I 0,0 C 53 % 79 % 0 % 1021,4 hPa 0,0 l/m 13,7 km/h (3 Bft) 0 min 10,6 km/h (2 Bft)
15.06.2010 02:48 21,2 C 14,3 C 0,0 UV-I 0,0 C 53 % 79 % 0 % 1021,4 hPa 0,0 l/m 12,8 km/h (3 Bft) 0 min 11,3 km/h (2 Bft)
15.06.2010 02:50 21,2 C 14,3 C 0,0 UV-I 0,0 C 53 % 80 % 0 % 1021,4 hPa 0,0 l/m 12,8 km/h (3 Bft) 0 min 23,2 km/h (4 Bft)
15.06.2010 02:56 21,3 C 14,1 C 0,0 UV-I 0,0 C 53 % 80 % 0 % 1021,4 hPa 0,0 l/m 10,0 km/h (2 Bft) 0 min 14,8 km/h (3 Bft)
15.06.2010 03:00 21,3 C 14,0 C 0,0 UV-I 0,0 C 53 % 81 % 0 % 1021,4 hPa 0,0 l/m 10,8 km/h (2 Bft) 0 min 19,6 km/h (3 Bft)
15.06.2010 03:06 21,2 C 14,0 C 0,1 UV-I 0,0 C 53 % 81 % 0 % 1021,4 hPa 0,0 l/m 10,8 km/h (2 Bft) 0 min 17,7 km/h (3 Bft)
15.06.2010 03:08 21,2 C 13,9 C 0,1 UV-I 0,0 C 53 % 81 % 0 % 1021,4 hPa 0,0 l/m 11,6 km/h (2 Bft) 0 min 10,6 km/h (2 Bft)
15.06.2010 03:10 21,2 C 13,9 C 0,1 UV-I 0,0 C 53 % 81 % 0 % 1021,4 hPa 0,0 l/m 11,6 km/h (2 Bft) 0 min 10,6 km/h (2 Bft)
15.06.2010 03:12 21,2 C 13,8 C 0,0 UV-I 0,0 C 53 % 81 % 0 % 1022,2 hPa 0,0 l/m 10,4 km/h (2 Bft) 0 min 10,3 km/h (2 Bft)
15.06.2010 03:14 21,2 C 13,9 C 0,0 UV-I 0,0 C 53 % 81 % 0 % 1022,2 hPa 0,0 l/m 10,4 km/h (2 Bft) 0 min 14,2 km/h (3 Bft)
15.06.2010 03:16 21,2 C 13,9 C 0,0 UV-I 0,0 C 53 % 82 % 0 % 1022,2 hPa 0,0 l/m 10,8 km/h (2 Bft) 0 min 5,8 km/h (2 Bft)
15.06.2010 03:18 21,2 C 13,8 C 0,0 UV-I 0,0 C 53 % 82 % 0 % 1022,2 hPa 0,0 l/m 9,6 km/h (2 Bft) 0 min 4,5 km/h (1 Bft)
15.06.2010 03:22 21,2 C 13,7 C 0,0 UV-I 0,0 C 53 % 82 % 0 % 1022,2 hPa 0,0 l/m 8,8 km/h (2 Bft) 0 min 10,0 km/h (2 Bft)
15.06.2010 03:24 21,2 C 13,6 C 0,0 UV-I 0,0 C 53 % 82 % 0 % 1022,2 hPa 0,0 l/m 8,8 km/h (2 Bft) 0 min 8,7 km/h (2 Bft)
15.06.2010 03:26 21,2 C 13,7 C 0,0 UV-I 0,0 C 53 % 82 % 0 % 1022,2 hPa 0,0 l/m 8,0 km/h (2 Bft) 0 min 5,8 km/h (2 Bft)
15.06.2010 03:28 21,2 C 13,6 C 0,0 UV-I 0,0 C 53 % 82 % 0 % 1022,2 hPa 0,0 l/m 9,2 km/h (2 Bft) 0 min 14,2 km/h (3 Bft)
15.06.2010 03:30 21,2 C 13,5 C 0,0 UV-I 0,0 C 53 % 82 % 0 % 1022,2 hPa 0,0 l/m 9,2 km/h (2 Bft) 0 min 14,2 km/h (3 Bft)
15.06.2010 03:32 21,2 C 13,5 C 0,0 UV-I 0,0 C 54 % 82 % 0 % 1022,3 hPa 0,0 l/m 10,4 km/h (2 Bft) 0 min 6,4 km/h (2 Bft)
15.06.2010 03:34 21,2 C 13,5 C 0,0 UV-I 0,0 C 53 % 82 % 0 % 1022,3 hPa 0,0 l/m 10,0 km/h (2 Bft) 0 min 9,0 km/h (2 Bft)
15.06.2010 03:36 21,2 C 13,4 C 0,0 UV-I 0,0 C 54 % 82 % 0 % 1022,3 hPa 0,0 l/m 9,2 km/h (2 Bft) 0 min 10,3 km/h (2 Bft)
15.06.2010 03:42 21,2 C 13,4 C 0,1 UV-I 0,0 C 54 % 83 % 0 % 1022,3 hPa 0,0 l/m 7,2 km/h (2 Bft) 0 min 10,0 km/h (2 Bft)
15.06.2010 03:44 21,2 C 13,3 C 0,1 UV-I 0,0 C 54 % 83 % 0 % 1022,3 hPa 0,0 l/m 8,0 km/h (2 Bft) 0 min 5,1 km/h (1 Bft)
15.06.2010 03:46 21,2 C 13,3 C 0,1 UV-I 0,0 C 54 % 83 % 0 % 1022,3 hPa 0,0 l/m 8,8 km/h (2 Bft) 0 min 10,6 km/h (2 Bft)
15.06.2010 03:48 21,2 C 13,3 C 0,1 UV-I 0,0 C 54 % 83 % 0 % 1022,3 hPa 0,0 l/m 9,2 km/h (2 Bft) 0 min 8,4 km/h (2 Bft)
15.06.2010 03:50 21,2 C 13,2 C 0,1 UV-I 0,0 C 54 % 83 % 0 % 1022,3 hPa 0,0 l/m 9,2 km/h (2 Bft) 0 min 8,4 km/h (2 Bft)
15.06.2010 03:52 21,2 C 13,2 C 0,0 UV-I 0,0 C 54 % 83 % 0 % 1022,7 hPa 0,0 l/m 10,0 km/h (2 Bft) 0 min 12,2 km/h (2 Bft)
15.06.2010 03:54 21,2 C 13,2 C 0,0 UV-I 0,0 C 54 % 83 % 0 % 1022,7 hPa 0,0 l/m 9,2 km/h (2 Bft) 0 min 10,0 km/h (2 Bft)
15.06.2010 03:56 21,1 C 13,2 C 0,0 UV-I 0,0 C 54 % 83 % 0 % 1022,7 hPa 0,0 l/m 8,4 km/h (2 Bft) 0 min 8,7 km/h (2 Bft)
15.06.2010 03:58 21,2 C 13,3 C 0,0 UV-I 0,0 C 54 % 83 % 0 % 1022,7 hPa 0,0 l/m 8,0 km/h (2 Bft) 0 min 12,2 km/h (2 Bft)
15.06.2010 04:00 21,1 C 13,3 C 0,0 UV-I 0,0 C 54 % 83 % 0 % 1022,7 hPa 0,0 l/m 8,0 km/h (2 Bft) 0 min 10,9 km/h (2 Bft)
15.06.2010 04:02 21,1 C 13,3 C 0,0 UV-I 0,0 C 54 % 83 % 0 % 1022,7 hPa 0,0 l/m 8,8 km/h (2 Bft) 0 min 9,3 km/h (2 Bft)
15.06.2010 04:04 21,1 C 13,3 C 0,0 UV-I 0,0 C 54 % 83 % 0 % 1022,7 hPa 0,0 l/m 9,2 km/h (2 Bft) 0 min 11,3 km/h (2 Bft)
15.06.2010 04:06 21,1 C 13,2 C 0,0 UV-I 0,0 C 54 % 83 % 0 % 1022,7 hPa 0,0 l/m 10,8 km/h (2 Bft) 0 min 10,9 km/h (2 Bft)
15.06.2010 04:08 21,1 C 13,2 C 0,0 UV-I 0,0 C 54 % 83 % 0 % 1022,7 hPa 0,0 l/m 12,0 km/h (2 Bft) 0 min 9,7 km/h (2 Bft)
15.06.2010 04:10 21,1 C 13,2 C 0,0 UV-I 0,0 C 54 % 83 % 0 % 1022,7 hPa 0,0 l/m 12,0 km/h (2 Bft) 0 min 9,7 km/h (2 Bft)
15.06.2010 04:13 21,1 C 13,1 C 0,0 UV-I 0,0 C 54 % 83 % 0 % 1023,0 hPa 0,0 l/m 13,3 km/h (3 Bft) 0 min 8,7 km/h (2 Bft)
15.06.2010 04:18 21,0 C 13,1 C 0,0 UV-I 0,0 C 54 % 83 % 0 % 1023,0 hPa 0,0 l/m 12,4 km/h (3 Bft) 0 min 13,8 km/h (3 Bft)
15.06.2010 04:19 21,0 C 13,1 C 0,0 UV-I 0,0 C 54 % 83 % 0 % 1023,0 hPa 0,0 l/m 12,4 km/h (3 Bft) 0 min 13,8 km/h (3 Bft)
15.06.2010 04:22 21,0 C 13,1 C 0,0 UV-I 0,0 C 54 % 83 % 0 % 1023,0 hPa 0,0 l/m 12,0 km/h (2 Bft) 0 min 10,6 km/h (2 Bft)
15.06.2010 04:24 21,0 C 13,1 C 0,0 UV-I 0,0 C 54 % 82 % 0 % 1023,0 hPa 0,0 l/m 12,4 km/h (3 Bft) 0 min 14,2 km/h (3 Bft)
15.06.2010 04:26 21,0 C 13,1 C 0,0 UV-I 0,0 C 54 % 83 % 0 % 1023,0 hPa 0,0 l/m 13,3 km/h (3 Bft) 0 min 9,7 km/h (2 Bft)
15.06.2010 04:28 21,0 C 13,1 C 0,0 UV-I 0,0 C 54 % 82 % 0 % 1023,0 hPa 0,0 l/m 14,1 km/h (3 Bft) 0 min 15,4 km/h (3 Bft)
15.06.2010 04:30 21,0 C 13,1 C 0,0 UV-I 0,0 C 54 % 82 % 0 % 1023,0 hPa 0,0 l/m 14,1 km/h (3 Bft) 0 min 15,4 km/h (3 Bft)
15.06.2010 04:32 21,0 C 13,1 C 0,0 UV-I 0,0 C 54 % 82 % 0 % 1022,5 hPa 0,0 l/m 13,7 km/h (3 Bft) 0 min 14,2 km/h (3 Bft)
15.06.2010 04:34 21,0 C 13,1 C 0,0 UV-I 0,0 C 54 % 83 % 0 % 1022,5 hPa 0,0 l/m 13,7 km/h (3 Bft) 0 min 18,3 km/h (3 Bft)
15.06.2010 04:36 21,0 C 13,1 C 0,0 UV-I 0,0 C 54 % 83 % 0 % 1022,5 hPa 0,0 l/m 14,5 km/h (3 Bft) 0 min 13,8 km/h (3 Bft)
15.06.2010 04:38 21,0 C 13,1 C 0,0 UV-I 0,0 C 54 % 82 % 0 % 1022,5 hPa 0,0 l/m 14,9 km/h (3 Bft) 0 min 14,8 km/h (3 Bft)
15.06.2010 04:40 21,0 C 13,1 C 0,0 UV-I 0,0 C 54 % 82 % 0 % 1022,5 hPa 0,0 l/m 14,9 km/h (3 Bft) 0 min 4,8 km/h (1 Bft)
15.06.2010 04:42 21,0 C 13,1 C 0,0 UV-I 0,0 C 54 % 82 % 0 % 1022,5 hPa 0,0 l/m 14,1 km/h (3 Bft) 0 min 15,4 km/h (3 Bft)
15.06.2010 04:44 21,0 C 13,1 C 0,0 UV-I 0,0 C 54 % 82 % 0 % 1022,5 hPa 0,0 l/m 15,3 km/h (3 Bft) 0 min 22,5 km/h (4 Bft)
15.06.2010 04:46 21,0 C 13,0 C 0,0 UV-I 0,0 C 54 % 82 % 0 % 1022,5 hPa 0,0 l/m 16,5 km/h (3 Bft) 0 min 20,6 km/h (4 Bft)
15.06.2010 04:48 21,0 C 13,1 C 0,0 UV-I 0,0 C 54 % 82 % 0 % 1022,5 hPa 0,0 l/m 16,1 km/h (3 Bft) 0 min 8,4 km/h (2 Bft)
15.06.2010 04:50 20,9 C 13,0 C 0,0 UV-I 0,0 C 54 % 82 % 0 % 1022,5 hPa 0,0 l/m 16,1 km/h (3 Bft) 0 min 8,4 km/h (2 Bft)
15.06.2010 04:52 20,9 C 12,9 C 0,0 UV-I 0,0 C 53 % 82 % 0 % 1022,6 hPa 0,0 l/m 16,9 km/h (3 Bft) 0 min 17,4 km/h (3 Bft)
15.06.2010 04:54 20,9 C 12,9 C 0,0 UV-I 0,0 C 53 % 81 % 0 % 1022,6 hPa 0,0 l/m 16,9 km/h (3 Bft) 0 min 12,9 km/h (3 Bft)
15.06.2010 04:56 20,9 C 12,8 C 0,0 UV-I 0,0 C 53 % 81 % 0 % 1022,6 hPa 0,0 l/m 15,3 km/h (3 Bft) 0 min 10,0 km/h (2 Bft)
15.06.2010 04:58 20,9 C 12,8 C 0,0 UV-I 0,0 C 53 % 81 % 0 % 1022,6 hPa 0,0 l/m 14,1 km/h (3 Bft) 0 min 16,7 km/h (3 Bft)
15.06.2010 05:00 20,8 C 12,8 C 0,0 UV-I 0,0 C 53 % 81 % 0 % 1022,6 hPa 0,0 l/m 15,7 km/h (3 Bft) 0 min 19,0 km/h (3 Bft)
15.06.2010 05:02 20,8 C 12,7 C 0,0 UV-I 0,0 C 53 % 81 % 0 % 1022,6 hPa 0,0 l/m 15,3 km/h (3 Bft) 0 min 16,4 km/h (3 Bft)
15.06.2010 05:04 20,8 C 12,7 C 0,0 UV-I 0,0 C 53 % 81 % 0 % 1022,6 hPa 0,0 l/m 14,9 km/h (3 Bft) 0 min 16,4 km/h (3 Bft)
15.06.2010 05:06 20,8 C 12,6 C 0,0 UV-I 0,0 C 53 % 81 % 0 % 1022,6 hPa 0,0 l/m 14,9 km/h (3 Bft) 0 min 16,1 km/h (3 Bft)
15.06.2010 05:08 20,8 C 12,6 C 0,0 UV-I 0,0 C 53 % 81 % 0 % 1022,6 hPa 0,0 l/m 16,1 km/h (3 Bft) 0 min 20,9 km/h (4 Bft)
15.06.2010 05:10 20,8 C 12,5 C 0,0 UV-I 0,0 C 53 % 80 % 0 % 1022,6 hPa 0,0 l/m 16,1 km/h (3 Bft) 0 min 20,9 km/h (4 Bft)
15.06.2010 05:12 20,8 C 12,5 C 0,0 UV-I 0,0 C 53 % 80 % 0 % 1022,6 hPa 0,0 l/m 16,9 km/h (3 Bft) 0 min 12,9 km/h (3 Bft)
15.06.2010 05:14 20,7 C 12,4 C 0,0 UV-I 0,0 C 53 % 80 % 0 % 1022,6 hPa 0,0 l/m 16,9 km/h (3 Bft) 0 min 15,8 km/h (3 Bft)
15.06.2010 05:16 20,7 C 12,4 C 0,1 UV-I 0,0 C 52 % 80 % 0 % 1022,6 hPa 0,0 l/m 16,5 km/h (3 Bft) 0 min 11,6 km/h (2 Bft)
15.06.2010 05:18 20,7 C 12,4 C 0,1 UV-I 0,0 C 52 % 80 % 0 % 1022,6 hPa 0,0 l/m 15,7 km/h (3 Bft) 0 min 6,1 km/h (2 Bft)
15.06.2010 05:20 20,6 C 12,3 C 0,1 UV-I 0,0 C 52 % 80 % 0 % 1022,6 hPa 0,0 l/m 13,7 km/h (3 Bft) 0 min 10,3 km/h (2 Bft)
15.06.2010 05:22 20,6 C 12,3 C 0,1 UV-I 0,0 C 52 % 80 % 0 % 1022,6 hPa 0,0 l/m 13,3 km/h (3 Bft) 0 min 18,0 km/h (3 Bft)
15.06.2010 05:24 20,6 C 12,3 C 0,1 UV-I 0,0 C 52 % 80 % 0 % 1022,6 hPa 0,0 l/m 13,7 km/h (3 Bft) 0 min 19,0 km/h (3 Bft)
15.06.2010 05:26 20,6 C 12,1 C 0,1 UV-I 0,0 C 52 % 80 % 0 % 1022,6 hPa 0,0 l/m 13,7 km/h (3 Bft) 0 min 8,0 km/h (2 Bft)
15.06.2010 05:28 20,5 C 12,1 C 0,1 UV-I 0,0 C 52 % 80 % 0 % 1022,6 hPa 0,0 l/m 14,5 km/h (3 Bft) 0 min 15,4 km/h (3 Bft)
15.06.2010 05:30 20,5 C 12,1 C 0,1 UV-I 0,0 C 52 % 80 % 0 % 1022,6 hPa 0,0 l/m 14,5 km/h (3 Bft) 0 min 32,2 km/h (5 Bft)
15.06.2010 05:32 20,5 C 12,1 C 0,1 UV-I 0,0 C 52 % 80 % 0 % 1022,7 hPa 0,0 l/m 16,1 km/h (3 Bft) 0 min 11,3 km/h (2 Bft)
15.06.2010 05:34 20,5 C 12,1 C 0,1 UV-I 0,0 C 52 % 80 % 0 % 1022,7 hPa 0,0 l/m 16,1 km/h (3 Bft) 0 min 20,9 km/h (4 Bft)
15.06.2010 05:36 20,5 C 12,0 C 0,1 UV-I 0,0 C 52 % 80 % 0 % 1022,7 hPa 0,0 l/m 15,3 km/h (3 Bft) 0 min 8,0 km/h (2 Bft)
15.06.2010 05:38 20,4 C 11,9 C 0,1 UV-I 0,0 C 52 % 80 % 0 % 1022,7 hPa 0,0 l/m 14,9 km/h (3 Bft) 0 min 8,0 km/h (2 Bft)
15.06.2010 05:40 20,4 C 11,9 C 0,1 UV-I 0,0 C 52 % 80 % 0 % 1022,7 hPa 0,0 l/m 14,1 km/h (3 Bft) 0 min 14,2 km/h (3 Bft)
15.06.2010 05:42 20,4 C 11,8 C 0,2 UV-I 0,0 C 52 % 80 % 0 % 1022,7 hPa 0,0 l/m 13,3 km/h (3 Bft) 0 min 9,0 km/h (2 Bft)
15.06.2010 05:44 20,4 C 11,9 C 0,2 UV-I 0,0 C 52 % 80 % 0 % 1022,7 hPa 0,0 l/m 12,4 km/h (3 Bft) 0 min 10,3 km/h (2 Bft)
15.06.2010 05:46 20,4 C 11,9 C 0,2 UV-I 0,0 C 52 % 80 % 0 % 1022,7 hPa 0,0 l/m 13,3 km/h (3 Bft) 0 min 19,0 km/h (3 Bft)
15.06.2010 05:48 20,4 C 11,8 C 0,2 UV-I 0,0 C 51 % 79 % 0 % 1022,7 hPa 0,0 l/m 14,5 km/h (3 Bft) 0 min 17,4 km/h (3 Bft)
15.06.2010 05:50 20,2 C 11,8 C 0,2 UV-I 0,0 C 51 % 79 % 0 % 1022,7 hPa 0,0 l/m 14,5 km/h (3 Bft) 0 min 17,4 km/h (3 Bft)
15.06.2010 05:52 20,3 C 11,9 C 0,3 UV-I 0,0 C 51 % 80 % 0 % 1022,6 hPa 0,0 l/m 14,5 km/h (3 Bft) 0 min 11,6 km/h (2 Bft)
15.06.2010 05:54 20,3 C 11,8 C 0,3 UV-I 0,0 C 51 % 79 % 0 % 1022,6 hPa 0,0 l/m 15,3 km/h (3 Bft) 0 min 10,6 km/h (2 Bft)
15.06.2010 05:56 20,3 C 11,7 C 0,4 UV-I 0,0 C 51 % 79 % 0 % 1022,6 hPa 0,0 l/m 14,9 km/h (3 Bft) 0 min 7,7 km/h (2 Bft)
15.06.2010 05:58 20,2 C 11,7 C 0,4 UV-I 0,0 C 51 % 79 % 0 % 1022,6 hPa 0,0 l/m 14,5 km/h (3 Bft) 0 min 22,9 km/h (4 Bft)
15.06.2010 06:00 20,2 C 11,7 C 0,4 UV-I 0,0 C 51 % 79 % 0 % 1022,6 hPa 0,0 l/m 14,5 km/h (3 Bft) 0 min 14,8 km/h (3 Bft)
15.06.2010 06:02 20,2 C 11,6 C 0,5 UV-I 0,0 C 51 % 79 % 0 % 1022,6 hPa 0,0 l/m 14,1 km/h (3 Bft) 0 min 14,8 km/h (3 Bft)
15.06.2010 06:04 20,2 C 11,6 C 0,5 UV-I 0,0 C 51 % 79 % 0 % 1022,6 hPa 0,0 l/m 14,1 km/h (3 Bft) 0 min 14,8 km/h (3 Bft)
15.06.2010 06:06 20,2 C 11,7 C 0,6 UV-I 0,0 C 50 % 79 % 0 % 1022,6 hPa 0,0 l/m 13,7 km/h (3 Bft) 0 min 16,4 km/h (3 Bft)
15.06.2010 06:08 20,2 C 11,6 C 0,6 UV-I 0,0 C 50 % 79 % 0 % 1022,6 hPa 0,0 l/m 13,7 km/h (3 Bft) 0 min 10,3 km/h (2 Bft)
15.06.2010 06:10 20,1 C 11,6 C 0,6 UV-I 0,0 C 50 % 79 % 0 % 1022,6 hPa 0,0 l/m 13,7 km/h (3 Bft) 0 min 10,3 km/h (2 Bft)
15.06.2010 06:12 20,1 C 11,6 C 0,7 UV-I 0,0 C 50 % 79 % 0 % 1022,7 hPa 0,0 l/m 12,0 km/h (2 Bft) 0 min 12,2 km/h (2 Bft)
15.06.2010 06:14 20,1 C 11,6 C 0,7 UV-I 0,0 C 50 % 79 % 0 % 1022,7 hPa 0,0 l/m 11,6 km/h (2 Bft) 0 min 13,8 km/h (3 Bft)
15.06.2010 06:16 20,1 C 11,6 C 0,7 UV-I 0,0 C 50 % 79 % 0 % 1022,7 hPa 0,0 l/m 12,4 km/h (3 Bft) 0 min 18,0 km/h (3 Bft)
15.06.2010 06:18 20,1 C 11,5 C 0,7 UV-I 0,0 C 50 % 79 % 0 % 1022,7 hPa 0,0 l/m 12,4 km/h (3 Bft) 0 min 14,2 km/h (3 Bft)
15.06.2010 06:22 20,0 C 11,5 C 0,8 UV-I 0,0 C 50 % 79 % 0 % 1022,7 hPa 0,0 l/m 13,7 km/h (3 Bft) 0 min 17,4 km/h (3 Bft)
15.06.2010 06:24 20,0 C 11,5 C 0,8 UV-I 0,0 C 50 % 79 % 0 % 1022,7 hPa 0,0 l/m 12,4 km/h (3 Bft) 0 min 4,2 km/h (1 Bft)
15.06.2010 06:26 20,0 C 11,5 C 0,9 UV-I 0,0 C 50 % 79 % 0 % 1022,7 hPa 0,0 l/m 12,0 km/h (2 Bft) 0 min 15,1 km/h (3 Bft)
15.06.2010 06:28 20,0 C 11,5 C 0,9 UV-I 0,0 C 50 % 79 % 0 % 1022,7 hPa 0,0 l/m 10,8 km/h (2 Bft) 0 min 8,4 km/h (2 Bft)
15.06.2010 06:30 20,0 C 11,5 C 0,9 UV-I 0,0 C 50 % 79 % 0 % 1022,7 hPa 0,0 l/m 10,8 km/h (2 Bft) 0 min 8,4 km/h (2 Bft)
15.06.2010 06:32 20,0 C 11,5 C 1,0 UV-I 0,0 C 50 % 79 % 0 % 1022,6 hPa 0,0 l/m 10,0 km/h (2 Bft) 0 min 12,9 km/h (3 Bft)
15.06.2010 06:34 20,0 C 11,5 C 1,0 UV-I 0,0 C 50 % 79 % 0 % 1022,6 hPa 0,0 l/m 9,2 km/h (2 Bft) 0 min 11,6 km/h (2 Bft)
15.06.2010 06:36 20,0 C 11,5 C 1,1 UV-I 0,0 C 50 % 79 % 0 % 1022,6 hPa 0,0 l/m 9,2 km/h (2 Bft) 0 min 15,1 km/h (3 Bft)
15.06.2010 06:38 19,9 C 11,6 C 1,1 UV-I 0,0 C 51 % 78 % 0 % 1022,6 hPa 0,0 l/m 8,0 km/h (2 Bft) 0 min 5,8 km/h (2 Bft)
15.06.2010 06:40 19,9 C 11,6 C 1,1 UV-I 0,0 C 51 % 78 % 0 % 1022,6 hPa 0,0 l/m 8,8 km/h (2 Bft) 0 min 12,2 km/h (2 Bft)
15.06.2010 06:42 20,0 C 11,6 C 1,2 UV-I 0,0 C 51 % 78 % 0 % 1022,6 hPa 0,0 l/m 9,2 km/h (2 Bft) 0 min 11,9 km/h (2 Bft)
15.06.2010 06:44 19,9 C 11,6 C 1,2 UV-I 0,0 C 51 % 78 % 0 % 1022,6 hPa 0,0 l/m 9,6 km/h (2 Bft) 0 min 14,5 km/h (3 Bft)
15.06.2010 06:46 19,9 C 11,6 C 1,3 UV-I 0,0 C 51 % 78 % 0 % 1022,6 hPa 0,0 l/m 10,8 km/h (2 Bft) 0 min 8,7 km/h (2 Bft)
15.06.2010 06:48 19,9 C 11,6 C 1,3 UV-I 0,0 C 51 % 78 % 0 % 1022,6 hPa 0,0 l/m 10,8 km/h (2 Bft) 0 min 6,8 km/h (2 Bft)
15.06.2010 06:50 19,9 C 11,6 C 1,3 UV-I 0,0 C 51 % 78 % 0 % 1022,6 hPa 0,0 l/m 10,8 km/h (2 Bft) 0 min 6,8 km/h (2 Bft)
15.06.2010 06:52 19,9 C 11,6 C 1,4 UV-I 0,0 C 51 % 78 % 0 % 1022,9 hPa 0,0 l/m 10,8 km/h (2 Bft) 0 min 6,8 km/h (2 Bft)
15.06.2010 06:58 19,9 C 11,6 C 1,5 UV-I 0,0 C 51 % 78 % 0 % 1022,9 hPa 0,0 l/m 8,8 km/h (2 Bft) 0 min 10,0 km/h (2 Bft)
15.06.2010 07:02 19,9 C 11,6 C 1,6 UV-I 0,0 C 51 % 78 % 0 % 1022,9 hPa 0,0 l/m 8,0 km/h (2 Bft) 0 min 9,7 km/h (2 Bft)
15.06.2010 07:04 19,9 C 11,7 C 1,6 UV-I 0,0 C 51 % 78 % 0 % 1022,9 hPa 0,0 l/m 8,4 km/h (2 Bft) 0 min 6,8 km/h (2 Bft)
15.06.2010 07:06 19,9 C 11,7 C 1,7 UV-I 0,0 C 51 % 78 % 0 % 1022,9 hPa 0,0 l/m 7,6 km/h (2 Bft) 0 min 4,8 km/h (1 Bft)
15.06.2010 07:08 20,0 C 11,9 C 1,7 UV-I 0,0 C 51 % 78 % 0 % 1022,9 hPa 0,0 l/m 6,8 km/h (2 Bft) 0 min 5,5 km/h (1 Bft)
15.06.2010 07:12 20,0 C 11,9 C 1,7 UV-I 0,0 C 51 % 78 % 0 % 1023,0 hPa 0,0 l/m 7,6 km/h (2 Bft) 0 min 10,9 km/h (2 Bft)
15.06.2010 07:14 20,0 C 11,9 C 1,7 UV-I 0,0 C 51 % 77 % 0 % 1023,0 hPa 0,0 l/m 7,6 km/h (2 Bft) 0 min 15,8 km/h (3 Bft)
15.06.2010 07:16 19,9 C 11,9 C 1,8 UV-I 0,0 C 51 % 77 % 0 % 1023,0 hPa 0,0 l/m 8,4 km/h (2 Bft) 0 min 20,0 km/h (4 Bft)
15.06.2010 07:20 20,0 C 11,9 C 1,8 UV-I 0,0 C 51 % 77 % 0 % 1023,0 hPa 0,0 l/m 10,0 km/h (2 Bft) 0 min 7,7 km/h (2 Bft)
15.06.2010 07:22 20,0 C 11,8 C 1,9 UV-I 0,1 C 50 % 77 % 3 % 1023,0 hPa 0,0 l/m 11,2 km/h (2 Bft) 0 min 13,8 km/h (3 Bft)
15.06.2010 07:24 20,0 C 11,8 C 1,9 UV-I 0,1 C 50 % 77 % 3 % 1023,0 hPa 0,0 l/m 11,2 km/h (2 Bft) 0 min 10,0 km/h (2 Bft)
15.06.2010 07:26 20,0 C 11,9 C 2,0 UV-I 0,1 C 50 % 76 % 3 % 1023,0 hPa 0,0 l/m 10,8 km/h (2 Bft) 0 min 3,2 km/h (1 Bft)
15.06.2010 07:28 20,0 C 11,9 C 2,0 UV-I 0,1 C 50 % 76 % 3 % 1023,0 hPa 0,0 l/m 10,0 km/h (2 Bft) 0 min 19,0 km/h (3 Bft)
15.06.2010 07:33 20,0 C 12,0 C 2,1 UV-I 0,2 C 50 % 77 % 6 % 1023,4 hPa 0,0 l/m 9,6 km/h (2 Bft) 0 min 16,1 km/h (3 Bft)
15.06.2010 07:36 20,0 C 12,0 C 2,3 UV-I 0,2 C 50 % 76 % 6 % 1023,4 hPa 0,0 l/m 10,0 km/h (2 Bft) 0 min 20,9 km/h (4 Bft)
15.06.2010 07:38 20,0 C 12,1 C 2,3 UV-I 0,1 C 50 % 76 % 3 % 1023,4 hPa 0,0 l/m 11,6 km/h (2 Bft) 0 min 12,9 km/h (3 Bft)
15.06.2010 07:40 20,0 C 12,1 C 2,3 UV-I 0,2 C 50 % 76 % 6 % 1023,4 hPa 0,0 l/m 12,0 km/h (2 Bft) 0 min 6,4 km/h (2 Bft)
15.06.2010 07:42 20,0 C 12,1 C 2,4 UV-I 0,2 C 50 % 76 % 6 % 1023,4 hPa 0,0 l/m 12,0 km/h (2 Bft) 0 min 13,2 km/h (3 Bft)
15.06.2010 07:44 20,0 C 12,0 C 2,4 UV-I 0,4 C 50 % 76 % 11 % 1023,4 hPa 0,0 l/m 13,3 km/h (3 Bft) 0 min 14,5 km/h (3 Bft)
15.06.2010 07:46 20,0 C 12,0 C 2,6 UV-I 0,4 C 50 % 76 % 11 % 1023,4 hPa 0,0 l/m 12,8 km/h (3 Bft) 0 min 8,4 km/h (2 Bft)
15.06.2010 07:48 20,0 C 12,1 C 2,6 UV-I 0,4 C 50 % 76 % 11 % 1023,4 hPa 0,0 l/m 11,2 km/h (2 Bft) 0 min 8,0 km/h (2 Bft)
15.06.2010 07:50 20,0 C 12,1 C 2,6 UV-I 0,4 C 50 % 75 % 11 % 1023,4 hPa 0,0 l/m 11,2 km/h (2 Bft) 0 min 8,0 km/h (2 Bft)
15.06.2010 07:52 20,0 C 12,3 C 2,9 UV-I 0,4 C 50 % 75 % 11 % 1023,4 hPa 0,0 l/m 11,2 km/h (2 Bft) 0 min 8,0 km/h (2 Bft)
15.06.2010 07:54 20,0 C 12,3 C 2,9 UV-I 0,5 C 50 % 75 % 14 % 1023,4 hPa 0,0 l/m 10,0 km/h (2 Bft) 0 min 5,8 km/h (2 Bft)
15.06.2010 07:56 20,0 C 12,3 C 3,1 UV-I 0,5 C 50 % 75 % 14 % 1023,4 hPa 0,0 l/m 8,8 km/h (2 Bft) 0 min 7,4 km/h (2 Bft)
15.06.2010 07:58 20,0 C 12,4 C 3,1 UV-I 0,6 C 50 % 74 % 17 % 1023,4 hPa 0,0 l/m 9,2 km/h (2 Bft) 0 min 7,4 km/h (2 Bft)
15.06.2010 08:00 20,0 C 12,4 C 3,1 UV-I 0,7 C 50 % 75 % 20 % 1023,4 hPa 0,0 l/m 8,8 km/h (2 Bft) 0 min 12,6 km/h (3 Bft)
15.06.2010 08:02 20,0 C 12,4 C 3,2 UV-I 0,9 C 50 % 75 % 26 % 1023,4 hPa 0,0 l/m 6,0 km/h (2 Bft) 0 min 0,0 km/h (0 Bft)
15.06.2010 08:04 20,0 C 12,5 C 3,2 UV-I 1,0 C 50 % 74 % 29 % 1023,4 hPa 0,0 l/m 6,0 km/h (2 Bft) 0 min 19,0 km/h (3 Bft)
15.06.2010 08:06 20,0 C 12,6 C 3,4 UV-I 1,1 C 50 % 73 % 31 % 1023,4 hPa 0,0 l/m 7,6 km/h (2 Bft) 0 min 19,0 km/h (3 Bft)
15.06.2010 08:08 20,0 C 12,6 C 3,4 UV-I 1,4 C 50 % 74 % 40 % 1023,4 hPa 0,0 l/m 7,2 km/h (2 Bft) 0 min 8,0 km/h (2 Bft)
15.06.2010 08:10 20,0 C 12,7 C 3,4 UV-I 1,3 C 50 % 74 % 37 % 1023,4 hPa 0,0 l/m 7,2 km/h (2 Bft) 0 min 8,0 km/h (2 Bft)
15.06.2010 08:12 20,0 C 12,7 C 3,4 UV-I 1,8 C 50 % 73 % 51 % 1023,9 hPa 0,0 l/m 7,6 km/h (2 Bft) 0 min 8,0 km/h (2 Bft)
15.06.2010 08:14 20,0 C 12,7 C 3,4 UV-I 2,0 C 50 % 73 % 57 % 1023,9 hPa 0,0 l/m 9,2 km/h (2 Bft) 0 min 11,6 km/h (2 Bft)
15.06.2010 08:16 20,0 C 12,8 C 3,4 UV-I 2,0 C 50 % 73 % 57 % 1023,9 hPa 0,0 l/m 8,8 km/h (2 Bft) 0 min 7,4 km/h (2 Bft)
15.06.2010 08:18 20,0 C 12,9 C 3,4 UV-I 2,0 C 50 % 73 % 57 % 1023,9 hPa 0,0 l/m 8,4 km/h (2 Bft) 0 min 10,0 km/h (2 Bft)
15.06.2010 08:20 20,0 C 12,8 C 3,4 UV-I 2,2 C 50 % 73 % 63 % 1023,9 hPa 0,0 l/m 9,2 km/h (2 Bft) 0 min 9,7 km/h (2 Bft)
15.06.2010 08:22 20,0 C 12,8 C 3,7 UV-I 2,3 C 50 % 73 % 66 % 1023,9 hPa 0,0 l/m 9,2 km/h (2 Bft) 0 min 8,0 km/h (2 Bft)
15.06.2010 08:26 20,0 C 12,8 C 3,8 UV-I 2,4 C 50 % 72 % 69 % 1023,9 hPa 0,0 l/m 12,0 km/h (2 Bft) 0 min 20,9 km/h (4 Bft)
15.06.2010 08:28 20,0 C 12,9 C 3,8 UV-I 2,2 C 50 % 72 % 63 % 1023,9 hPa 0,0 l/m 11,2 km/h (2 Bft) 0 min 7,1 km/h (2 Bft)
15.06.2010 08:30 20,0 C 12,9 C 3,8 UV-I 2,2 C 50 % 73 % 63 % 1023,9 hPa 0,0 l/m 11,2 km/h (2 Bft) 0 min 7,1 km/h (2 Bft)
15.06.2010 08:32 20,0 C 13,0 C 4,2 UV-I 2,4 C 49 % 71 % 69 % 1023,6 hPa 0,0 l/m 10,8 km/h (2 Bft) 0 min 12,6 km/h (3 Bft)
15.06.2010 08:34 20,1 C 13,1 C 4,2 UV-I 2,5 C 49 % 71 % 71 % 1023,6 hPa 0,0 l/m 10,4 km/h (2 Bft) 0 min 20,3 km/h (4 Bft)
15.06.2010 08:36 20,0 C 13,0 C 4,3 UV-I 2,6 C 49 % 71 % 74 % 1023,6 hPa 0,0 l/m 10,0 km/h (2 Bft) 0 min 19,6 km/h (3 Bft)
15.06.2010 08:38 20,1 C 13,0 C 4,3 UV-I 2,6 C 49 % 71 % 74 % 1023,6 hPa 0,0 l/m 12,4 km/h (3 Bft) 0 min 9,0 km/h (2 Bft)
15.06.2010 08:40 20,0 C 13,1 C 4,3 UV-I 2,5 C 49 % 70 % 71 % 1023,6 hPa 0,0 l/m 13,7 km/h (3 Bft) 0 min 10,0 km/h (2 Bft)
15.06.2010 08:42 20,0 C 13,2 C 4,9 UV-I 2,6 C 49 % 71 % 74 % 1023,6 hPa 0,0 l/m 14,5 km/h (3 Bft) 0 min 12,9 km/h (3 Bft)
15.06.2010 08:44 20,0 C 13,3 C 4,9 UV-I 2,7 C 49 % 70 % 77 % 1023,6 hPa 0,0 l/m 14,9 km/h (3 Bft) 0 min 18,7 km/h (3 Bft)
15.06.2010 08:48 20,0 C 13,4 C 5,6 UV-I 3,4 C 49 % 70 % 97 % 1023,6 hPa 0,0 l/m 14,5 km/h (3 Bft) 2 min 22,5 km/h (4 Bft)
15.06.2010 08:50 20,0 C 13,6 C 5,6 UV-I 3,2 C 49 % 70 % 91 % 1023,6 hPa 0,0 l/m 14,5 km/h (3 Bft) 2 min 22,5 km/h (4 Bft)
15.06.2010 08:52 20,1 C 13,6 C 6,6 UV-I 3,9 C 49 % 70 % 100 % 1023,8 hPa 0,0 l/m 13,3 km/h (3 Bft) 2 min 5,5 km/h (1 Bft)
15.06.2010 08:54 20,0 C 13,8 C 6,6 UV-I 4,1 C 49 % 69 % 100 % 1023,8 hPa 0,0 l/m 13,7 km/h (3 Bft) 2 min 12,6 km/h (3 Bft)
15.06.2010 08:56 20,0 C 13,9 C 7,4 UV-I 4,4 C 49 % 68 % 100 % 1023,8 hPa 0,0 l/m 14,5 km/h (3 Bft) 2 min 29,6 km/h (5 Bft)
15.06.2010 08:58 20,0 C 13,8 C 7,4 UV-I 4,6 C 49 % 67 % 100 % 1023,8 hPa 0,0 l/m 17,3 km/h (3 Bft) 2 min 31,2 km/h (5 Bft)
15.06.2010 09:00 20,0 C 13,9 C 7,4 UV-I 4,4 C 49 % 68 % 100 % 1023,8 hPa 0,0 l/m 18,1 km/h (3 Bft) 2 min 23,8 km/h (4 Bft)
15.06.2010 09:02 20,0 C 13,9 C 8,0 UV-I 4,3 C 49 % 68 % 100 % 1023,8 hPa 0,0 l/m 18,9 km/h (3 Bft) 2 min 24,1 km/h (4 Bft)
15.06.2010 09:04 20,0 C 13,9 C 8,0 UV-I 4,3 C 49 % 68 % 100 % 1023,8 hPa 0,0 l/m 19,7 km/h (3 Bft) 2 min 11,6 km/h (2 Bft)
15.06.2010 09:06 20,0 C 14,1 C 8,8 UV-I 4,3 C 49 % 68 % 100 % 1023,8 hPa 0,0 l/m 19,7 km/h (3 Bft) 2 min 7,4 km/h (2 Bft)
15.06.2010 09:08 20,0 C 14,1 C 8,8 UV-I 4,6 C 49 % 68 % 100 % 1023,8 hPa 0,0 l/m 18,1 km/h (3 Bft) 2 min 5,5 km/h (1 Bft)
15.06.2010 09:10 20,0 C 14,2 C 8,8 UV-I 4,5 C 49 % 67 % 100 % 1023,8 hPa 0,0 l/m 18,1 km/h (3 Bft) 2 min 5,5 km/h (1 Bft)
15.06.2010 09:12 20,0 C 14,2 C 8,8 UV-I 5,0 C 49 % 66 % 100 % 1024,4 hPa 0,0 l/m 14,1 km/h (3 Bft) 2 min 22,5 km/h (4 Bft)
15.06.2010 09:14 20,0 C 14,3 C 8,8 UV-I 4,8 C 49 % 66 % 100 % 1024,4 hPa 0,0 l/m 12,8 km/h (3 Bft) 2 min 16,4 km/h (3 Bft)
15.06.2010 09:16 20,0 C 14,3 C 9,7 UV-I 4,8 C 49 % 67 % 100 % 1024,4 hPa 0,0 l/m 12,0 km/h (2 Bft) 2 min 5,8 km/h (2 Bft)
15.06.2010 09:18 20,0 C 14,3 C 9,7 UV-I 5,0 C 49 % 66 % 100 % 1024,4 hPa 0,0 l/m 10,8 km/h (2 Bft) 2 min 13,8 km/h (3 Bft)
15.06.2010 09:20 20,0 C 14,5 C 9,7 UV-I 5,1 C 49 % 66 % 100 % 1024,4 hPa 0,0 l/m 10,0 km/h (2 Bft) 2 min 6,1 km/h (2 Bft)
15.06.2010 09:22 20,0 C 14,7 C 9,7 UV-I 5,1 C 49 % 65 % 100 % 1024,4 hPa 0,0 l/m 10,4 km/h (2 Bft) 2 min 9,7 km/h (2 Bft)
15.06.2010 09:24 20,0 C 14,7 C 9,7 UV-I 5,3 C 49 % 65 % 100 % 1024,4 hPa 0,0 l/m 8,8 km/h (2 Bft) 2 min 5,5 km/h (1 Bft)
15.06.2010 09:26 20,0 C 14,6 C 11,3 UV-I 5,6 C 49 % 65 % 100 % 1024,4 hPa 0,0 l/m 8,0 km/h (2 Bft) 2 min 6,4 km/h (2 Bft)
15.06.2010 09:28 20,0 C 14,7 C 11,3 UV-I 5,7 C 49 % 65 % 100 % 1024,4 hPa 0,0 l/m 9,2 km/h (2 Bft) 2 min 7,1 km/h (2 Bft)
15.06.2010 09:32 20,1 C 14,7 C 11,9 UV-I 5,4 C 49 % 63 % 100 % 1024,6 hPa 0,0 l/m 13,3 km/h (3 Bft) 2 min 32,5 km/h (5 Bft)
15.06.2010 09:34 20,1 C 14,6 C 11,9 UV-I 5,2 C 49 % 63 % 100 % 1024,6 hPa 0,0 l/m 14,5 km/h (3 Bft) 2 min 13,8 km/h (3 Bft)
15.06.2010 09:36 20,1 C 14,6 C 11,7 UV-I 5,0 C 49 % 63 % 100 % 1024,6 hPa 0,0 l/m 16,5 km/h (3 Bft) 2 min 18,0 km/h (3 Bft)
15.06.2010 09:38 20,1 C 14,7 C 11,7 UV-I 4,7 C 49 % 63 % 100 % 1024,6 hPa 0,0 l/m 16,1 km/h (3 Bft) 2 min 9,7 km/h (2 Bft)
15.06.2010 09:40 20,1 C 14,8 C 11,7 UV-I 4,6 C 49 % 63 % 100 % 1024,6 hPa 0,0 l/m 16,1 km/h (3 Bft) 2 min 20,0 km/h (4 Bft)
15.06.2010 09:42 20,1 C 14,7 C 9,7 UV-I 4,3 C 48 % 62 % 100 % 1024,6 hPa 0,0 l/m 16,1 km/h (3 Bft) 2 min 12,9 km/h (3 Bft)
15.06.2010 09:44 20,1 C 14,7 C 9,7 UV-I 4,2 C 48 % 62 % 100 % 1024,6 hPa 0,0 l/m 13,3 km/h (3 Bft) 2 min 12,9 km/h (3 Bft)
15.06.2010 09:46 20,1 C 14,7 C 11,1 UV-I 4,3 C 48 % 63 % 100 % 1024,6 hPa 0,0 l/m 12,4 km/h (3 Bft) 2 min 10,9 km/h (2 Bft)
15.06.2010 09:48 20,1 C 14,8 C 11,1 UV-I 4,4 C 48 % 63 % 100 % 1024,6 hPa 0,0 l/m 11,6 km/h (2 Bft) 2 min 5,1 km/h (1 Bft)
15.06.2010 09:50 20,1 C 14,9 C 11,1 UV-I 4,3 C 48 % 62 % 100 % 1024,6 hPa 0,0 l/m 11,6 km/h (2 Bft) 2 min 5,1 km/h (1 Bft)
15.06.2010 09:52 20,1 C 15,0 C 12,9 UV-I 5,1 C 48 % 61 % 100 % 1024,6 hPa 0,0 l/m 10,8 km/h (2 Bft) 2 min 24,5 km/h (4 Bft)
15.06.2010 09:54 20,1 C 15,1 C 12,9 UV-I 5,0 C 48 % 61 % 100 % 1024,6 hPa 0,0 l/m 12,0 km/h (2 Bft) 2 min 6,8 km/h (2 Bft)
15.06.2010 09:56 20,1 C 15,1 C 12,7 UV-I 5,1 C 48 % 62 % 100 % 1024,6 hPa 0,0 l/m 11,2 km/h (2 Bft) 2 min 3,9 km/h (1 Bft)
15.06.2010 09:58 20,1 C 15,2 C 12,7 UV-I 5,3 C 48 % 63 % 100 % 1024,6 hPa 0,0 l/m 10,4 km/h (2 Bft) 2 min 8,4 km/h (2 Bft)
15.06.2010 10:00 20,2 C 15,5 C 12,7 UV-I 5,4 C 48 % 61 % 100 % 1024,6 hPa 0,0 l/m 10,4 km/h (2 Bft) 2 min 7,7 km/h (2 Bft)
15.06.2010 10:04 20,2 C 15,4 C 12,6 UV-I 5,8 C 48 % 60 % 100 % 1024,6 hPa 0,0 l/m 9,2 km/h (2 Bft) 2 min 15,4 km/h (3 Bft)
15.06.2010 10:06 20,2 C 15,3 C 12,5 UV-I 5,5 C 48 % 60 % 100 % 1024,6 hPa 0,0 l/m 10,0 km/h (2 Bft) 2 min 10,3 km/h (2 Bft)
15.06.2010 10:08 20,2 C 15,3 C 12,5 UV-I 5,4 C 48 % 60 % 100 % 1024,6 hPa 0,0 l/m 12,4 km/h (3 Bft) 2 min 30,6 km/h (5 Bft)
15.06.2010 10:10 20,2 C 15,2 C 12,5 UV-I 5,5 C 48 % 60 % 100 % 1024,6 hPa 0,0 l/m 12,4 km/h (3 Bft) 2 min 30,6 km/h (5 Bft)
15.06.2010 10:12 20,2 C 15,3 C 11,5 UV-I 4,9 C 48 % 60 % 100 % 1025,1 hPa 0,0 l/m 14,5 km/h (3 Bft) 2 min 6,1 km/h (2 Bft)
15.06.2010 10:14 20,2 C 15,3 C 11,5 UV-I 4,7 C 48 % 60 % 100 % 1025,1 hPa 0,0 l/m 14,9 km/h (3 Bft) 2 min 14,8 km/h (3 Bft)
15.06.2010 10:16 20,2 C 15,3 C 10,6 UV-I 4,4 C 48 % 60 % 100 % 1025,1 hPa 0,0 l/m 14,9 km/h (3 Bft) 2 min 5,8 km/h (2 Bft)
15.06.2010 10:18 20,2 C 15,3 C 10,6 UV-I 4,3 C 48 % 60 % 100 % 1025,1 hPa 0,0 l/m 14,9 km/h (3 Bft) 2 min 8,4 km/h (2 Bft)
15.06.2010 10:20 20,2 C 15,3 C 10,6 UV-I 4,1 C 48 % 59 % 100 % 1025,1 hPa 0,0 l/m 13,7 km/h (3 Bft) 2 min 7,4 km/h (2 Bft)
15.06.2010 10:22 20,2 C 15,3 C 8,8 UV-I 3,8 C 48 % 59 % 100 % 1025,1 hPa 0,0 l/m 12,0 km/h (2 Bft) 2 min 7,7 km/h (2 Bft)
15.06.2010 10:24 20,2 C 15,5 C 8,8 UV-I 3,6 C 48 % 59 % 100 % 1025,1 hPa 0,0 l/m 10,8 km/h (2 Bft) 2 min 6,8 km/h (2 Bft)
15.06.2010 10:26 20,2 C 15,5 C 10,2 UV-I 3,9 C 48 % 59 % 100 % 1025,1 hPa 0,0 l/m 9,2 km/h (2 Bft) 2 min 9,0 km/h (2 Bft)
15.06.2010 10:28 20,2 C 15,6 C 10,2 UV-I 4,2 C 48 % 58 % 100 % 1025,1 hPa 0,0 l/m 8,4 km/h (2 Bft) 2 min 8,7 km/h (2 Bft)
15.06.2010 10:30 20,2 C 15,7 C 10,2 UV-I 4,1 C 48 % 59 % 100 % 1025,1 hPa 0,0 l/m 8,4 km/h (2 Bft) 2 min 8,7 km/h (2 Bft)
15.06.2010 10:32 20,2 C 15,7 C 13,2 UV-I 5,1 C 48 % 57 % 100 % 1025,0 hPa 0,0 l/m 8,0 km/h (2 Bft) 2 min 14,2 km/h (3 Bft)
15.06.2010 10:34 20,2 C 15,8 C 13,2 UV-I 4,9 C 48 % 57 % 100 % 1025,0 hPa 0,0 l/m 8,8 km/h (2 Bft) 2 min 10,3 km/h (2 Bft)
15.06.2010 10:38 20,3 C 15,9 C 13,1 UV-I 5,4 C 48 % 57 % 100 % 1025,0 hPa 0,0 l/m 9,6 km/h (2 Bft) 2 min 11,3 km/h (2 Bft)
15.06.2010 10:40 20,3 C 16,0 C 13,1 UV-I 5,7 C 48 % 57 % 100 % 1025,0 hPa 0,0 l/m 8,8 km/h (2 Bft) 2 min 4,2 km/h (1 Bft)
15.06.2010 10:42 20,3 C 16,3 C 14,3 UV-I 6,0 C 48 % 56 % 100 % 1025,0 hPa 0,0 l/m 10,0 km/h (2 Bft) 2 min 15,1 km/h (3 Bft)
15.06.2010 10:44 20,4 C 16,3 C 14,3 UV-I 6,0 C 48 % 57 % 100 % 1025,0 hPa 0,0 l/m 8,4 km/h (2 Bft) 2 min 8,4 km/h (2 Bft)
15.06.2010 10:46 20,2 C 16,3 C 13,6 UV-I 6,2 C 48 % 55 % 100 % 1025,0 hPa 0,0 l/m 8,8 km/h (2 Bft) 2 min 8,7 km/h (2 Bft)
15.06.2010 10:48 20,4 C 16,3 C 13,6 UV-I 6,2 C 48 % 55 % 100 % 1025,0 hPa 0,0 l/m 9,2 km/h (2 Bft) 2 min 22,2 km/h (4 Bft)
15.06.2010 10:50 20,4 C 16,2 C 13,6 UV-I 6,3 C 48 % 56 % 100 % 1025,0 hPa 0,0 l/m 9,2 km/h (2 Bft) 2 min 22,2 km/h (4 Bft)
15.06.2010 10:52 20,2 C 16,4 C 12,9 UV-I 5,7 C 48 % 56 % 100 % 1025,4 hPa 0,0 l/m 11,2 km/h (2 Bft) 2 min 10,3 km/h (2 Bft)
15.06.2010 10:54 20,4 C 16,4 C 12,9 UV-I 5,8 C 48 % 55 % 100 % 1025,4 hPa 0,0 l/m 12,0 km/h (2 Bft) 2 min 4,2 km/h (1 Bft)
15.06.2010 10:56 20,2 C 16,4 C 13,4 UV-I 5,7 C 48 % 55 % 100 % 1025,4 hPa 0,0 l/m 11,2 km/h (2 Bft) 2 min 5,5 km/h (1 Bft)
15.06.2010 10:58 20,4 C 16,4 C 13,4 UV-I 6,1 C 48 % 56 % 100 % 1025,4 hPa 0,0 l/m 10,8 km/h (2 Bft) 2 min 5,8 km/h (2 Bft)
15.06.2010 11:00 20,4 C 16,5 C 13,4 UV-I 6,5 C 48 % 56 % 100 % 1025,4 hPa 0,0 l/m 8,8 km/h (2 Bft) 2 min 10,9 km/h (2 Bft)
15.06.2010 11:02 20,4 C 16,5 C 14,5 UV-I 6,5 C 48 % 57 % 100 % 1025,4 hPa 0,0 l/m 9,2 km/h (2 Bft) 2 min 3,9 km/h (1 Bft)
15.06.2010 11:04 20,4 C 16,7 C 14,5 UV-I 6,5 C 48 % 56 % 100 % 1025,4 hPa 0,0 l/m 8,8 km/h (2 Bft) 2 min 15,4 km/h (3 Bft)
15.06.2010 11:06 20,4 C 16,7 C 12,8 UV-I 6,4 C 48 % 56 % 100 % 1025,4 hPa 0,0 l/m 10,0 km/h (2 Bft) 2 min 24,1 km/h (4 Bft)
15.06.2010 11:08 20,4 C 16,7 C 12,8 UV-I 6,1 C 48 % 56 % 100 % 1025,4 hPa 0,0 l/m 10,8 km/h (2 Bft) 2 min 17,1 km/h (3 Bft)
15.06.2010 11:10 20,4 C 16,7 C 12,8 UV-I 6,1 C 48 % 55 % 100 % 1025,4 hPa 0,0 l/m 10,8 km/h (2 Bft) 2 min 17,1 km/h (3 Bft)
15.06.2010 11:12 20,4 C 16,7 C 12,6 UV-I 5,6 C 48 % 56 % 100 % 1025,3 hPa 0,0 l/m 11,6 km/h (2 Bft) 2 min 8,0 km/h (2 Bft)
15.06.2010 11:14 20,4 C 16,8 C 12,6 UV-I 5,7 C 48 % 55 % 100 % 1025,3 hPa 0,0 l/m 13,7 km/h (3 Bft) 2 min 20,0 km/h (4 Bft)
15.06.2010 11:16 20,4 C 16,8 C 14,2 UV-I 5,6 C 48 % 55 % 100 % 1025,3 hPa 0,0 l/m 13,3 km/h (3 Bft) 2 min 5,5 km/h (1 Bft)
15.06.2010 11:18 20,4 C 16,9 C 14,2 UV-I 5,9 C 48 % 55 % 100 % 1025,3 hPa 0,0 l/m 12,8 km/h (3 Bft) 2 min 27,4 km/h (4 Bft)
15.06.2010 11:20 20,5 C 16,8 C 14,2 UV-I 6,1 C 48 % 54 % 100 % 1025,3 hPa 0,0 l/m 13,3 km/h (3 Bft) 2 min 18,3 km/h (3 Bft)
15.06.2010 11:22 20,5 C 16,7 C 12,9 UV-I 5,7 C 48 % 55 % 100 % 1025,3 hPa 0,0 l/m 14,1 km/h (3 Bft) 2 min 4,5 km/h (1 Bft)
15.06.2010 11:26 20,5 C 16,8 C 11,3 UV-I 5,3 C 48 % 55 % 100 % 1025,3 hPa 0,0 l/m 14,1 km/h (3 Bft) 2 min 18,0 km/h (3 Bft)
15.06.2010 11:30 20,5 C 16,7 C 11,3 UV-I 5,1 C 48 % 55 % 100 % 1025,3 hPa 0,0 l/m 17,7 km/h (3 Bft) 2 min 23,8 km/h (4 Bft)
15.06.2010 11:34 20,5 C 16,7 C 12,0 UV-I 5,0 C 48 % 55 % 100 % 1025,7 hPa 0,0 l/m 16,5 km/h (3 Bft) 2 min 7,1 km/h (2 Bft)
15.06.2010 11:36 20,5 C 16,8 C 10,9 UV-I 4,9 C 48 % 56 % 100 % 1025,7 hPa 0,0 l/m 16,1 km/h (3 Bft) 2 min 15,1 km/h (3 Bft)
15.06.2010 11:38 20,5 C 16,9 C 10,9 UV-I 4,9 C 48 % 56 % 100 % 1025,7 hPa 0,0 l/m 13,7 km/h (3 Bft) 2 min 4,5 km/h (1 Bft)
15.06.2010 11:40 20,5 C 17,1 C 10,9 UV-I 4,9 C 48 % 56 % 100 % 1025,7 hPa 0,0 l/m 12,8 km/h (3 Bft) 2 min 36,4 km/h (5 Bft)
15.06.2010 11:42 20,5 C 17,0 C 10,0 UV-I 4,8 C 48 % 55 % 100 % 1025,7 hPa 0,0 l/m 12,4 km/h (3 Bft) 2 min 14,8 km/h (3 Bft)
15.06.2010 11:44 20,5 C 17,1 C 10,0 UV-I 4,9 C 48 % 55 % 100 % 1025,7 hPa 0,0 l/m 12,4 km/h (3 Bft) 2 min 23,8 km/h (4 Bft)
15.06.2010 11:46 20,6 C 17,1 C 10,3 UV-I 5,0 C 48 % 54 % 100 % 1025,7 hPa 0,0 l/m 13,7 km/h (3 Bft) 2 min 19,3 km/h (3 Bft)
15.06.2010 11:48 20,5 C 17,1 C 10,3 UV-I 4,8 C 48 % 55 % 100 % 1025,7 hPa 0,0 l/m 14,1 km/h (3 Bft) 2 min 12,2 km/h (2 Bft)
15.06.2010 11:52 20,6 C 17,1 C 10,1 UV-I 4,8 C 48 % 55 % 100 % 1025,8 hPa 0,0 l/m 15,7 km/h (3 Bft) 2 min 30,9 km/h (5 Bft)
15.06.2010 11:54 20,6 C 16,9 C 10,1 UV-I 4,7 C 48 % 55 % 100 % 1025,8 hPa 0,0 l/m 16,9 km/h (3 Bft) 2 min 16,7 km/h (3 Bft)
15.06.2010 11:56 20,6 C 17,0 C 9,4 UV-I 4,5 C 48 % 55 % 100 % 1025,8 hPa 0,0 l/m 16,1 km/h (3 Bft) 2 min 24,1 km/h (4 Bft)
15.06.2010 11:58 20,6 C 17,0 C 9,4 UV-I 4,5 C 48 % 55 % 100 % 1025,8 hPa 0,0 l/m 15,7 km/h (3 Bft) 2 min 5,1 km/h (1 Bft)
15.06.2010 12:00 20,6 C 17,0 C 9,4 UV-I 4,4 C 48 % 54 % 100 % 1025,8 hPa 0,0 l/m 14,9 km/h (3 Bft) 2 min 8,7 km/h (2 Bft)
15.06.2010 12:02 20,6 C 16,9 C 9,0 UV-I 4,4 C 48 % 54 % 100 % 1025,8 hPa 0,0 l/m 14,9 km/h (3 Bft) 2 min 13,2 km/h (3 Bft)
15.06.2010 12:04 20,6 C 16,9 C 9,0 UV-I 4,4 C 48 % 54 % 100 % 1025,8 hPa 0,0 l/m 14,9 km/h (3 Bft) 2 min 13,2 km/h (3 Bft)
15.06.2010 12:06 20,6 C 16,9 C 9,4 UV-I 4,4 C 48 % 55 % 100 % 1025,8 hPa 0,0 l/m 14,9 km/h (3 Bft) 2 min 17,4 km/h (3 Bft)
15.06.2010 12:08 20,6 C 17,1 C 9,4 UV-I 4,2 C 48 % 55 % 100 % 1025,8 hPa 0,0 l/m 13,7 km/h (3 Bft) 2 min 7,1 km/h (2 Bft)
15.06.2010 12:10 20,6 C 17,1 C 9,4 UV-I 4,2 C 48 % 56 % 100 % 1025,8 hPa 0,0 l/m 13,7 km/h (3 Bft) 2 min 7,1 km/h (2 Bft)
15.06.2010 12:12 20,7 C 17,2 C 9,6 UV-I 4,8 C 49 % 56 % 100 % 1025,8 hPa 0,0 l/m 12,8 km/h (3 Bft) 2 min 17,7 km/h (3 Bft)
15.06.2010 12:14 20,7 C 17,3 C 9,6 UV-I 4,9 C 49 % 55 % 100 % 1025,8 hPa 0,0 l/m 12,0 km/h (2 Bft) 2 min 18,0 km/h (3 Bft)
15.06.2010 12:16 20,7 C 17,2 C 9,7 UV-I 5,1 C 49 % 55 % 100 % 1025,8 hPa 0,0 l/m 11,6 km/h (2 Bft) 2 min 13,8 km/h (3 Bft)
15.06.2010 12:20 20,7 C 17,3 C 9,7 UV-I 5,0 C 49 % 55 % 100 % 1025,8 hPa 0,0 l/m 12,8 km/h (3 Bft) 2 min 14,5 km/h (3 Bft)
15.06.2010 12:22 20,8 C 17,5 C 9,8 UV-I 5,0 C 49 % 54 % 100 % 1025,8 hPa 0,0 l/m 14,1 km/h (3 Bft) 2 min 16,4 km/h (3 Bft)
15.06.2010 12:24 20,8 C 17,4 C 9,8 UV-I 5,0 C 49 % 55 % 100 % 1025,8 hPa 0,0 l/m 14,5 km/h (3 Bft) 2 min 10,9 km/h (2 Bft)
15.06.2010 12:26 20,8 C 17,3 C 8,5 UV-I 4,9 C 49 % 54 % 100 % 1025,8 hPa 0,0 l/m 14,1 km/h (3 Bft) 2 min 7,7 km/h (2 Bft)
15.06.2010 12:28 20,8 C 17,5 C 8,5 UV-I 4,4 C 49 % 54 % 100 % 1025,8 hPa 0,0 l/m 14,1 km/h (3 Bft) 2 min 20,3 km/h (4 Bft)
15.06.2010 12:34 20,8 C 17,4 C 9,0 UV-I 4,3 C 49 % 54 % 100 % 1025,7 hPa 0,0 l/m 16,1 km/h (3 Bft) 2 min 24,1 km/h (4 Bft)
15.06.2010 12:36 20,8 C 17,2 C 8,6 UV-I 4,1 C 49 % 55 % 100 % 1025,7 hPa 0,0 l/m 15,3 km/h (3 Bft) 2 min 5,8 km/h (2 Bft)
15.06.2010 12:40 20,9 C 17,4 C 8,6 UV-I 4,2 C 49 % 55 % 100 % 1025,7 hPa 0,0 l/m 17,3 km/h (3 Bft) 2 min 23,5 km/h (4 Bft)
15.06.2010 12:42 20,9 C 17,4 C 9,4 UV-I 4,3 C 49 % 55 % 100 % 1025,7 hPa 0,0 l/m 16,1 km/h (3 Bft) 2 min 16,1 km/h (3 Bft)
15.06.2010 12:44 20,9 C 17,6 C 9,4 UV-I 4,4 C 49 % 55 % 100 % 1025,7 hPa 0,0 l/m 14,1 km/h (3 Bft) 2 min 21,2 km/h (4 Bft)
15.06.2010 12:48 20,9 C 17,9 C 9,3 UV-I 4,5 C 49 % 55 % 100 % 1025,7 hPa 0,0 l/m 13,3 km/h (3 Bft) 2 min 19,6 km/h (3 Bft)
15.06.2010 12:50 20,9 C 18,0 C 9,3 UV-I 4,4 C 49 % 54 % 100 % 1025,7 hPa 0,0 l/m 13,3 km/h (3 Bft) 2 min 19,6 km/h (3 Bft)
15.06.2010 12:52 20,9 C 17,9 C 9,4 UV-I 4,9 C 49 % 53 % 100 % 1025,7 hPa 0,0 l/m 12,8 km/h (3 Bft) 2 min 24,1 km/h (4 Bft)
15.06.2010 12:56 21,0 C 17,9 C 9,4 UV-I 4,6 C 49 % 54 % 100 % 1025,7 hPa 0,0 l/m 14,5 km/h (3 Bft) 2 min 20,3 km/h (4 Bft)
15.06.2010 12:58 21,0 C 17,9 C 9,4 UV-I 4,5 C 49 % 54 % 100 % 1025,7 hPa 0,0 l/m 16,1 km/h (3 Bft) 2 min 15,4 km/h (3 Bft)
15.06.2010 13:00 21,0 C 17,8 C 9,4 UV-I 4,5 C 49 % 54 % 100 % 1025,7 hPa 0,0 l/m 18,1 km/h (3 Bft) 2 min 25,7 km/h (4 Bft)
15.06.2010 13:04 21,1 C 17,6 C 8,7 UV-I 3,8 C 49 % 54 % 100 % 1025,7 hPa 0,0 l/m 18,9 km/h (3 Bft) 2 min 22,2 km/h (4 Bft)
15.06.2010 13:06 21,1 C 17,6 C 7,5 UV-I 3,2 C 49 % 55 % 91 % 1025,7 hPa 0,0 l/m 18,9 km/h (3 Bft) 2 min 20,6 km/h (4 Bft)
15.06.2010 13:08 21,1 C 17,6 C 7,5 UV-I 3,1 C 49 % 55 % 89 % 1025,7 hPa 0,0 l/m 18,5 km/h (3 Bft) 2 min 9,7 km/h (2 Bft)
15.06.2010 13:10 21,1 C 17,7 C 7,5 UV-I 3,0 C 49 % 56 % 86 % 1025,7 hPa 0,0 l/m 18,5 km/h (3 Bft) 2 min 9,7 km/h (2 Bft)
15.06.2010 13:12 21,1 C 17,9 C 8,6 UV-I 3,5 C 49 % 55 % 100 % 1025,6 hPa 0,0 l/m 14,5 km/h (3 Bft) 2 min 11,6 km/h (2 Bft)
15.06.2010 13:14 21,2 C 17,9 C 8,6 UV-I 3,5 C 49 % 54 % 100 % 1025,6 hPa 0,0 l/m 14,9 km/h (3 Bft) 2 min 15,8 km/h (3 Bft)
15.06.2010 13:16 21,2 C 17,9 C 9,0 UV-I 3,6 C 49 % 54 % 100 % 1025,6 hPa 0,0 l/m 13,3 km/h (3 Bft) 2 min 19,0 km/h (3 Bft)
15.06.2010 13:18 21,2 C 18,1 C 9,0 UV-I 3,7 C 49 % 54 % 100 % 1025,6 hPa 0,0 l/m 13,7 km/h (3 Bft) 2 min 10,3 km/h (2 Bft)
15.06.2010 13:23 21,2 C 18,3 C 8,7 UV-I 3,8 C 49 % 53 % 100 % 1025,6 hPa 0,0 l/m 16,1 km/h (3 Bft) 2 min 32,2 km/h (5 Bft)
15.06.2010 13:28 21,2 C 18,1 C 9,2 UV-I 4,0 C 49 % 53 % 100 % 1025,6 hPa 0,0 l/m 16,9 km/h (3 Bft) 2 min 10,3 km/h (2 Bft)
15.06.2010 13:33 21,2 C 18,3 C 8,4 UV-I 3,9 C 49 % 55 % 100 % 1025,4 hPa 0,0 l/m 16,5 km/h (3 Bft) 2 min 17,1 km/h (3 Bft)
15.06.2010 13:39 21,4 C 18,5 C 8,7 UV-I 3,7 C 49 % 53 % 100 % 1025,4 hPa 0,0 l/m 14,5 km/h (3 Bft) 2 min 20,0 km/h (4 Bft)
15.06.2010 13:41 21,4 C 18,5 C 9,2 UV-I 3,7 C 49 % 53 % 100 % 1025,4 hPa 0,0 l/m 15,3 km/h (3 Bft) 2 min 15,1 km/h (3 Bft)
15.06.2010 13:42 21,4 C 18,5 C 9,2 UV-I 3,7 C 49 % 53 % 100 % 1025,4 hPa 0,0 l/m 15,3 km/h (3 Bft) 1 min 15,1 km/h (3 Bft)
15.06.2010 13:44 21,4 C 18,5 C 9,2 UV-I 3,9 C 49 % 52 % 100 % 1025,4 hPa 0,0 l/m 15,3 km/h (3 Bft) 2 min 13,2 km/h (3 Bft)
15.06.2010 13:46 21,5 C 18,6 C 9,1 UV-I 4,0 C 49 % 53 % 100 % 1025,4 hPa 0,0 l/m 15,7 km/h (3 Bft) 2 min 30,3 km/h (5 Bft)
15.06.2010 13:48 21,5 C 18,6 C 9,1 UV-I 4,1 C 49 % 52 % 100 % 1025,4 hPa 0,0 l/m 17,3 km/h (3 Bft) 2 min 17,7 km/h (3 Bft)
15.06.2010 13:50 21,5 C 18,7 C 9,1 UV-I 4,0 C 48 % 52 % 100 % 1025,4 hPa 0,0 l/m 17,3 km/h (3 Bft) 2 min 17,7 km/h (3 Bft)
15.06.2010 13:52 21,5 C 18,7 C 9,3 UV-I 4,1 C 49 % 52 % 100 % 1025,5 hPa 0,0 l/m 16,5 km/h (3 Bft) 2 min 21,9 km/h (4 Bft)
15.06.2010 13:54 21,6 C 18,6 C 9,3 UV-I 4,2 C 48 % 52 % 100 % 1025,5 hPa 0,0 l/m 16,5 km/h (3 Bft) 2 min 12,2 km/h (2 Bft)
15.06.2010 13:56 21,6 C 18,8 C 9,0 UV-I 4,0 C 48 % 53 % 100 % 1025,5 hPa 0,0 l/m 15,7 km/h (3 Bft) 2 min 10,9 km/h (2 Bft)
15.06.2010 13:58 21,6 C 18,8 C 9,0 UV-I 4,2 C 48 % 53 % 100 % 1025,5 hPa 0,0 l/m 13,7 km/h (3 Bft) 2 min 14,5 km/h (3 Bft)
15.06.2010 14:00 21,6 C 19,0 C 9,0 UV-I 4,2 C 48 % 53 % 100 % 1025,5 hPa 0,0 l/m 13,3 km/h (3 Bft) 2 min 10,9 km/h (2 Bft)
15.06.2010 14:02 21,7 C 19,1 C 9,5 UV-I 4,3 C 48 % 53 % 100 % 1025,5 hPa 0,0 l/m 13,3 km/h (3 Bft) 2 min 20,0 km/h (4 Bft)
15.06.2010 14:04 21,7 C 19,1 C 9,5 UV-I 4,5 C 48 % 52 % 100 % 1025,5 hPa 0,0 l/m 11,6 km/h (2 Bft) 2 min 11,6 km/h (2 Bft)
15.06.2010 14:06 21,7 C 19,1 C 9,3 UV-I 4,5 C 48 % 51 % 100 % 1025,5 hPa 0,0 l/m 13,3 km/h (3 Bft) 2 min 23,2 km/h (4 Bft)
15.06.2010 14:08 21,8 C 19,0 C 9,3 UV-I 4,5 C 48 % 51 % 100 % 1025,5 hPa 0,0 l/m 13,7 km/h (3 Bft) 2 min 4,5 km/h (1 Bft)
15.06.2010 14:10 21,8 C 19,0 C 9,3 UV-I 4,5 C 48 % 51 % 100 % 1025,5 hPa 0,0 l/m 13,7 km/h (3 Bft) 2 min 4,5 km/h (1 Bft)
15.06.2010 14:12 21,8 C 19,0 C 9,1 UV-I 4,5 C 48 % 50 % 100 % 1025,8 hPa 0,0 l/m 14,5 km/h (3 Bft) 2 min 11,6 km/h (2 Bft)
15.06.2010 14:16 21,9 C 19,1 C 8,9 UV-I 4,5 C 48 % 51 % 100 % 1025,8 hPa 0,0 l/m 12,8 km/h (3 Bft) 2 min 11,6 km/h (2 Bft)
15.06.2010 14:18 21,9 C 19,1 C 8,9 UV-I 4,4 C 48 % 51 % 100 % 1025,8 hPa 0,0 l/m 12,4 km/h (3 Bft) 2 min 13,8 km/h (3 Bft)
15.06.2010 14:20 22,0 C 19,0 C 8,9 UV-I 4,3 C 48 % 51 % 100 % 1025,8 hPa 0,0 l/m 13,7 km/h (3 Bft) 2 min 17,7 km/h (3 Bft)
15.06.2010 14:22 22,0 C 19,1 C 8,6 UV-I 3,9 C 48 % 51 % 100 % 1025,8 hPa 0,0 l/m 12,4 km/h (3 Bft) 2 min 13,8 km/h (3 Bft)
15.06.2010 14:26 22,1 C 18,9 C 8,2 UV-I 4,2 C 48 % 51 % 100 % 1025,8 hPa 0,0 l/m 13,3 km/h (3 Bft) 2 min 35,4 km/h (5 Bft)
15.06.2010 14:28 22,2 C 18,9 C 8,2 UV-I 3,7 C 48 % 50 % 100 % 1025,8 hPa 0,0 l/m 14,5 km/h (3 Bft) 2 min 15,4 km/h (3 Bft)
15.06.2010 14:30 22,2 C 18,8 C 8,2 UV-I 3,8 C 48 % 50 % 100 % 1025,8 hPa 0,0 l/m 14,5 km/h (3 Bft) 2 min 15,4 km/h (3 Bft)
15.06.2010 14:32 22,2 C 18,7 C 9,2 UV-I 3,7 C 48 % 50 % 100 % 1025,9 hPa 0,0 l/m 15,7 km/h (3 Bft) 2 min 12,2 km/h (2 Bft)
15.06.2010 14:34 22,4 C 18,8 C 9,2 UV-I 3,7 C 47 % 50 % 100 % 1025,9 hPa 0,0 l/m 16,1 km/h (3 Bft) 2 min 5,1 km/h (1 Bft)
15.06.2010 14:36 22,5 C 18,8 C 8,8 UV-I 3,9 C 47 % 51 % 100 % 1025,9 hPa 0,0 l/m 14,9 km/h (3 Bft) 2 min 11,9 km/h (2 Bft)
15.06.2010 14:38 22,5 C 18,8 C 8,8 UV-I 4,0 C 47 % 50 % 100 % 1025,9 hPa 0,0 l/m 15,7 km/h (3 Bft) 2 min 19,0 km/h (3 Bft)
15.06.2010 14:40 22,6 C 18,7 C 8,8 UV-I 3,6 C 47 % 50 % 100 % 1025,9 hPa 0,0 l/m 14,5 km/h (3 Bft) 2 min 13,5 km/h (3 Bft)
15.06.2010 14:42 22,6 C 18,7 C 7,8 UV-I 3,1 C 47 % 50 % 89 % 1025,9 hPa 0,0 l/m 13,3 km/h (3 Bft) 2 min 15,4 km/h (3 Bft)
15.06.2010 14:46 22,7 C 18,7 C 8,7 UV-I 3,3 C 46 % 51 % 94 % 1025,9 hPa 0,0 l/m 14,1 km/h (3 Bft) 2 min 12,6 km/h (3 Bft)
15.06.2010 14:48 22,8 C 18,9 C 8,7 UV-I 3,3 C 46 % 51 % 94 % 1025,9 hPa 0,0 l/m 13,7 km/h (3 Bft) 2 min 6,1 km/h (2 Bft)
15.06.2010 14:50 22,8 C 19,1 C 8,7 UV-I 3,1 C 46 % 50 % 89 % 1025,9 hPa 0,0 l/m 13,7 km/h (3 Bft) 2 min 6,1 km/h (2 Bft)
15.06.2010 14:52 22,9 C 19,1 C 8,6 UV-I 3,7 C 46 % 48 % 100 % 1025,9 hPa 0,0 l/m 13,3 km/h (3 Bft) 2 min 23,2 km/h (4 Bft)
15.06.2010 14:54 22,9 C 19,1 C 8,6 UV-I 3,7 C 46 % 47 % 100 % 1025,9 hPa 0,0 l/m 13,3 km/h (3 Bft) 2 min 9,0 km/h (2 Bft)
15.06.2010 14:56 23,0 C 19,2 C 8,5 UV-I 3,7 C 45 % 47 % 100 % 1025,9 hPa 0,0 l/m 14,1 km/h (3 Bft) 2 min 14,2 km/h (3 Bft)
15.06.2010 15:00 23,1 C 19,3 C 8,5 UV-I 3,8 C 45 % 45 % 100 % 1025,9 hPa 0,0 l/m 15,7 km/h (3 Bft) 2 min 20,6 km/h (4 Bft)
15.06.2010 15:02 23,2 C 19,2 C 8,6 UV-I 3,9 C 45 % 47 % 100 % 1025,9 hPa 0,0 l/m 15,3 km/h (3 Bft) 2 min 5,1 km/h (1 Bft)
15.06.2010 15:04 23,2 C 19,4 C 8,6 UV-I 3,7 C 45 % 47 % 100 % 1025,9 hPa 0,0 l/m 13,7 km/h (3 Bft) 2 min 27,7 km/h (4 Bft)
15.06.2010 15:06 23,3 C 19,5 C 8,7 UV-I 3,7 C 44 % 46 % 100 % 1025,9 hPa 0,0 l/m 14,1 km/h (3 Bft) 2 min 26,1 km/h (4 Bft)
15.06.2010 15:08 23,2 C 19,5 C 8,7 UV-I 3,7 C 44 % 46 % 100 % 1025,9 hPa 0,0 l/m 14,9 km/h (3 Bft) 2 min 16,4 km/h (3 Bft)
15.06.2010 15:10 23,4 C 19,4 C 8,7 UV-I 3,8 C 44 % 46 % 100 % 1025,9 hPa 0,0 l/m 14,9 km/h (3 Bft) 2 min 16,4 km/h (3 Bft)
15.06.2010 15:12 23,4 C 19,4 C 8,7 UV-I 3,9 C 44 % 46 % 100 % 1026,9 hPa 0,0 l/m 12,8 km/h (3 Bft) 2 min 13,8 km/h (3 Bft)
15.06.2010 15:14 23,5 C 19,5 C 8,7 UV-I 3,8 C 44 % 45 % 100 % 1026,9 hPa 0,0 l/m 14,9 km/h (3 Bft) 2 min 16,4 km/h (3 Bft)
15.06.2010 15:16 23,6 C 19,5 C 8,6 UV-I 3,8 C 44 % 45 % 100 % 1026,9 hPa 0,0 l/m 14,1 km/h (3 Bft) 2 min 11,6 km/h (2 Bft)
15.06.2010 15:18 23,6 C 19,5 C 8,6 UV-I 3,7 C 44 % 45 % 100 % 1026,9 hPa 0,0 l/m 14,1 km/h (3 Bft) 2 min 27,7 km/h (4 Bft)
15.06.2010 15:22 23,8 C 19,6 C 8,6 UV-I 3,7 C 43 % 45 % 100 % 1026,9 hPa 0,0 l/m 14,1 km/h (3 Bft) 2 min 18,3 km/h (3 Bft)
15.06.2010 15:24 23,8 C 19,7 C 8,6 UV-I 3,7 C 43 % 44 % 100 % 1026,9 hPa 0,0 l/m 13,7 km/h (3 Bft) 2 min 20,6 km/h (4 Bft)
15.06.2010 15:26 23,9 C 19,7 C 8,7 UV-I 3,8 C 43 % 45 % 100 % 1026,9 hPa 0,0 l/m 12,8 km/h (3 Bft) 2 min 10,0 km/h (2 Bft)
15.06.2010 15:28 24,0 C 19,9 C 8,7 UV-I 3,8 C 43 % 44 % 100 % 1026,9 hPa 0,0 l/m 12,4 km/h (3 Bft) 2 min 15,1 km/h (3 Bft)
15.06.2010 15:30 24,0 C 19,8 C 8,7 UV-I 3,9 C 43 % 43 % 100 % 1026,9 hPa 0,0 l/m 12,4 km/h (3 Bft) 2 min 15,1 km/h (3 Bft)
15.06.2010 15:32 24,1 C 19,9 C 8,4 UV-I 3,8 C 42 % 43 % 100 % 1027,4 hPa 0,0 l/m 11,6 km/h (2 Bft) 2 min 19,0 km/h (3 Bft)
15.06.2010 15:34 24,1 C 19,9 C 8,4 UV-I 3,8 C 42 % 43 % 100 % 1027,4 hPa 0,0 l/m 11,6 km/h (2 Bft) 2 min 12,6 km/h (3 Bft)
15.06.2010 15:36 24,2 C 19,9 C 8,8 UV-I 3,9 C 42 % 44 % 100 % 1027,4 hPa 0,0 l/m 12,0 km/h (2 Bft) 2 min 11,6 km/h (2 Bft)
15.06.2010 15:38 24,3 C 19,9 C 8,8 UV-I 3,8 C 42 % 44 % 100 % 1027,4 hPa 0,0 l/m 12,4 km/h (3 Bft) 2 min 13,2 km/h (3 Bft)
15.06.2010 15:42 24,4 C 19,8 C 8,3 UV-I 3,7 C 42 % 43 % 100 % 1027,4 hPa 0,0 l/m 12,8 km/h (3 Bft) 2 min 18,0 km/h (3 Bft)
15.06.2010 15:44 24,4 C 19,7 C 8,3 UV-I 3,7 C 42 % 43 % 100 % 1027,4 hPa 0,0 l/m 13,7 km/h (3 Bft) 2 min 19,3 km/h (3 Bft)
15.06.2010 15:46 24,5 C 19,7 C 9,0 UV-I 3,7 C 42 % 44 % 100 % 1027,4 hPa 0,0 l/m 14,9 km/h (3 Bft) 2 min 18,7 km/h (3 Bft)
15.06.2010 15:48 24,5 C 19,7 C 9,0 UV-I 3,6 C 41 % 44 % 100 % 1027,4 hPa 0,0 l/m 15,7 km/h (3 Bft) 2 min 26,4 km/h (4 Bft)
15.06.2010 15:50 24,6 C 19,7 C 9,0 UV-I 3,6 C 41 % 44 % 100 % 1027,4 hPa 0,0 l/m 15,7 km/h (3 Bft) 2 min 26,4 km/h (4 Bft)
15.06.2010 15:52 24,6 C 19,8 C 8,9 UV-I 3,6 C 41 % 45 % 100 % 1028,5 hPa 0,0 l/m 15,7 km/h (3 Bft) 2 min 4,8 km/h (1 Bft)
15.06.2010 15:54 24,7 C 19,9 C 8,9 UV-I 3,7 C 41 % 45 % 100 % 1028,5 hPa 0,0 l/m 15,3 km/h (3 Bft) 2 min 15,1 km/h (3 Bft)
15.06.2010 15:56 24,8 C 20,1 C 8,9 UV-I 3,5 C 41 % 44 % 100 % 1028,5 hPa 0,0 l/m 14,5 km/h (3 Bft) 2 min 20,6 km/h (4 Bft)
15.06.2010 15:58 24,8 C 20,0 C 8,9 UV-I 3,6 C 41 % 44 % 100 % 1028,5 hPa 0,0 l/m 13,3 km/h (3 Bft) 2 min 13,2 km/h (3 Bft)
15.06.2010 16:00 24,8 C 20,0 C 8,9 UV-I 3,6 C 41 % 45 % 100 % 1028,5 hPa 0,0 l/m 12,0 km/h (2 Bft) 2 min 26,7 km/h (4 Bft)
15.06.2010 16:02 24,8 C 20,0 C 9,2 UV-I 3,7 C 40 % 44 % 100 % 1028,5 hPa 0,0 l/m 13,3 km/h (3 Bft) 2 min 24,8 km/h (4 Bft)
15.06.2010 16:06 25,0 C 20,0 C 9,1 UV-I 3,7 C 40 % 44 % 100 % 1028,5 hPa 0,0 l/m 14,9 km/h (3 Bft) 2 min 18,3 km/h (3 Bft)
15.06.2010 16:08 25,0 C 20,1 C 9,1 UV-I 3,7 C 40 % 44 % 100 % 1028,5 hPa 0,0 l/m 13,3 km/h (3 Bft) 2 min 14,2 km/h (3 Bft)
15.06.2010 16:12 25,1 C 20,3 C 9,0 UV-I 3,6 C 40 % 43 % 100 % 1028,1 hPa 0,0 l/m 12,8 km/h (3 Bft) 2 min 6,4 km/h (2 Bft)
15.06.2010 16:14 25,1 C 20,3 C 9,0 UV-I 3,7 C 40 % 41 % 100 % 1028,1 hPa 0,0 l/m 13,3 km/h (3 Bft) 2 min 20,0 km/h (4 Bft)
15.06.2010 16:16 25,2 C 20,1 C 9,3 UV-I 3,8 C 40 % 42 % 100 % 1028,1 hPa 0,0 l/m 12,4 km/h (3 Bft) 2 min 6,1 km/h (2 Bft)
15.06.2010 16:18 25,2 C 20,1 C 9,3 UV-I 3,9 C 40 % 42 % 100 % 1028,1 hPa 0,0 l/m 12,8 km/h (3 Bft) 2 min 24,1 km/h (4 Bft)
15.06.2010 16:20 25,2 C 20,0 C 9,3 UV-I 3,9 C 40 % 42 % 100 % 1028,1 hPa 0,0 l/m 13,3 km/h (3 Bft) 2 min 24,8 km/h (4 Bft)
15.06.2010 16:24 25,4 C 20,0 C 9,1 UV-I 3,6 C 40 % 43 % 100 % 1028,1 hPa 0,0 l/m 15,3 km/h (3 Bft) 2 min 21,2 km/h (4 Bft)
15.06.2010 16:26 25,4 C 19,9 C 9,3 UV-I 3,6 C 39 % 43 % 100 % 1028,1 hPa 0,0 l/m 16,1 km/h (3 Bft) 2 min 13,5 km/h (3 Bft)
15.06.2010 16:28 25,4 C 19,9 C 9,3 UV-I 3,6 C 38 % 43 % 100 % 1028,1 hPa 0,0 l/m 16,9 km/h (3 Bft) 2 min 16,4 km/h (3 Bft)
15.06.2010 16:30 25,5 C 19,9 C 9,3 UV-I 3,6 C 38 % 42 % 100 % 1028,1 hPa 0,0 l/m 16,9 km/h (3 Bft) 2 min 16,4 km/h (3 Bft)
15.06.2010 16:32 25,5 C 20,1 C 9,3 UV-I 3,3 C 38 % 43 % 94 % 1027,8 hPa 0,0 l/m 15,7 km/h (3 Bft) 2 min 11,6 km/h (2 Bft)
15.06.2010 16:34 25,5 C 20,1 C 9,3 UV-I 3,4 C 38 % 43 % 97 % 1027,8 hPa 0,0 l/m 14,5 km/h (3 Bft) 2 min 20,9 km/h (4 Bft)
15.06.2010 16:36 25,5 C 20,0 C 10,1 UV-I 3,6 C 38 % 42 % 100 % 1027,8 hPa 0,0 l/m 14,1 km/h (3 Bft) 2 min 21,2 km/h (4 Bft)
15.06.2010 16:38 25,6 C 20,0 C 10,1 UV-I 3,6 C 39 % 42 % 100 % 1027,8 hPa 0,0 l/m 14,5 km/h (3 Bft) 2 min 11,6 km/h (2 Bft)
15.06.2010 16:40 25,6 C 20,0 C 10,1 UV-I 3,6 C 39 % 43 % 100 % 1027,8 hPa 0,0 l/m 14,5 km/h (3 Bft) 2 min 7,4 km/h (2 Bft)
15.06.2010 16:44 25,6 C 20,0 C 10,8 UV-I 3,8 C 38 % 42 % 100 % 1027,8 hPa 0,0 l/m 14,1 km/h (3 Bft) 2 min 10,0 km/h (2 Bft)
15.06.2010 16:46 25,6 C 20,0 C 11,4 UV-I 3,9 C 38 % 42 % 100 % 1027,8 hPa 0,0 l/m 14,9 km/h (3 Bft) 2 min 14,8 km/h (3 Bft)
15.06.2010 16:48 25,7 C 20,1 C 11,4 UV-I 4,0 C 38 % 42 % 100 % 1027,8 hPa 0,0 l/m 12,0 km/h (2 Bft) 2 min 4,8 km/h (1 Bft)
15.06.2010 16:52 25,8 C 20,3 C 12,0 UV-I 4,0 C 38 % 41 % 100 % 1029,4 hPa 0,0 l/m 10,4 km/h (2 Bft) 2 min 10,9 km/h (2 Bft)
15.06.2010 16:54 25,8 C 20,5 C 12,0 UV-I 4,0 C 38 % 41 % 100 % 1029,4 hPa 0,0 l/m 8,8 km/h (2 Bft) 2 min 6,4 km/h (2 Bft)
15.06.2010 16:58 25,8 C 20,4 C 12,4 UV-I 4,2 C 38 % 40 % 100 % 1029,4 hPa 0,0 l/m 10,0 km/h (2 Bft) 2 min 15,4 km/h (3 Bft)
15.06.2010 17:02 25,9 C 20,3 C 12,5 UV-I 4,1 C 37 % 39 % 100 % 1029,4 hPa 0,0 l/m 12,0 km/h (2 Bft) 2 min 19,3 km/h (3 Bft)
15.06.2010 17:06 25,9 C 20,3 C 12,5 UV-I 4,0 C 37 % 40 % 100 % 1029,4 hPa 0,0 l/m 12,4 km/h (3 Bft) 2 min 13,8 km/h (3 Bft)
15.06.2010 17:12 25,9 C 20,5 C 12,6 UV-I 4,0 C 37 % 38 % 100 % 1028,0 hPa 0,0 l/m 12,0 km/h (2 Bft) 2 min 20,9 km/h (4 Bft)
15.06.2010 17:16 26,0 C 20,5 C 12,8 UV-I 3,8 C 37 % 40 % 100 % 1028,0 hPa 0,0 l/m 11,2 km/h (2 Bft) 2 min 12,6 km/h (3 Bft)
15.06.2010 17:22 26,0 C 20,2 C 12,7 UV-I 3,5 C 37 % 39 % 100 % 1028,0 hPa 0,0 l/m 16,9 km/h (3 Bft) 2 min 13,8 km/h (3 Bft)
15.06.2010 17:24 26,0 C 20,2 C 12,7 UV-I 3,5 C 37 % 39 % 100 % 1028,0 hPa 0,0 l/m 16,9 km/h (3 Bft) 2 min 13,8 km/h (3 Bft)
15.06.2010 17:28 26,0 C 20,1 C 12,7 UV-I 3,4 C 37 % 41 % 97 % 1028,0 hPa 0,0 l/m 17,7 km/h (3 Bft) 2 min 18,7 km/h (3 Bft)
15.06.2010 17:33 26,0 C 20,3 C 12,8 UV-I 3,2 C 37 % 40 % 91 % 1026,8 hPa 0,0 l/m 16,5 km/h (3 Bft) 2 min 18,0 km/h (3 Bft)
15.06.2010 17:34 26,0 C 20,1 C 12,7 UV-I 3,3 C 37 % 40 % 94 % 1026,8 hPa 0,0 l/m 16,5 km/h (3 Bft) 1 min 17,7 km/h (3 Bft)
15.06.2010 17:36 26,0 C 20,1 C 12,7 UV-I 3,3 C 37 % 40 % 94 % 1026,8 hPa 0,0 l/m 16,5 km/h (3 Bft) 2 min 17,7 km/h (3 Bft)
15.06.2010 17:38 26,0 C 20,0 C 12,7 UV-I 3,4 C 37 % 40 % 97 % 1026,8 hPa 0,0 l/m 16,5 km/h (3 Bft) 2 min 14,8 km/h (3 Bft)
15.06.2010 17:40 26,0 C 20,0 C 12,7 UV-I 3,3 C 37 % 40 % 94 % 1026,8 hPa 0,0 l/m 17,3 km/h (3 Bft) 2 min 19,0 km/h (3 Bft)
15.06.2010 17:42 26,0 C 20,1 C 12,2 UV-I 3,1 C 37 % 41 % 89 % 1026,8 hPa 0,0 l/m 18,5 km/h (3 Bft) 2 min 22,5 km/h (4 Bft)
15.06.2010 17:44 26,0 C 19,9 C 12,2 UV-I 3,2 C 37 % 42 % 91 % 1026,8 hPa 0,0 l/m 18,5 km/h (3 Bft) 2 min 18,0 km/h (3 Bft)
15.06.2010 17:46 26,0 C 20,0 C 11,8 UV-I 3,2 C 37 % 42 % 91 % 1026,8 hPa 0,0 l/m 18,1 km/h (3 Bft) 2 min 17,1 km/h (3 Bft)
15.06.2010 17:48 26,0 C 19,9 C 11,8 UV-I 3,3 C 37 % 42 % 94 % 1026,8 hPa 0,0 l/m 16,9 km/h (3 Bft) 2 min 10,3 km/h (2 Bft)
15.06.2010 17:50 26,0 C 19,9 C 11,8 UV-I 3,3 C 37 % 41 % 94 % 1026,8 hPa 0,0 l/m 16,9 km/h (3 Bft) 2 min 10,3 km/h (2 Bft)
15.06.2010 17:52 26,0 C 19,9 C 9,9 UV-I 3,4 C 37 % 42 % 97 % 1026,4 hPa 0,0 l/m 15,3 km/h (3 Bft) 2 min 33,2 km/h (5 Bft)
15.06.2010 17:54 26,0 C 19,8 C 9,9 UV-I 3,5 C 37 % 41 % 100 % 1026,4 hPa 0,0 l/m 14,9 km/h (3 Bft) 2 min 11,9 km/h (2 Bft)
15.06.2010 17:56 26,0 C 19,8 C 6,1 UV-I 3,4 C 37 % 42 % 97 % 1026,4 hPa 0,0 l/m 14,9 km/h (3 Bft) 2 min 26,1 km/h (4 Bft)
15.06.2010 17:58 25,9 C 19,7 C 6,1 UV-I 3,5 C 37 % 42 % 100 % 1026,4 hPa 0,0 l/m 16,1 km/h (3 Bft) 2 min 21,9 km/h (4 Bft)
15.06.2010 18:00 25,9 C 19,6 C 6,1 UV-I 3,5 C 37 % 42 % 100 % 1026,4 hPa 0,0 l/m 17,3 km/h (3 Bft) 2 min 14,2 km/h (3 Bft)
15.06.2010 18:02 25,9 C 19,7 C 4,9 UV-I 3,3 C 37 % 42 % 94 % 1026,4 hPa 0,0 l/m 18,9 km/h (3 Bft) 2 min 21,9 km/h (4 Bft)
15.06.2010 18:04 25,8 C 19,6 C 4,9 UV-I 3,3 C 37 % 42 % 94 % 1026,4 hPa 0,0 l/m 19,3 km/h (3 Bft) 2 min 20,9 km/h (4 Bft)
15.06.2010 18:06 25,8 C 19,7 C 5,9 UV-I 3,2 C 37 % 42 % 91 % 1026,4 hPa 0,0 l/m 18,5 km/h (3 Bft) 2 min 7,4 km/h (2 Bft)
15.06.2010 18:08 25,8 C 19,6 C 5,9 UV-I 3,3 C 37 % 41 % 94 % 1026,4 hPa 0,0 l/m 17,3 km/h (3 Bft) 2 min 7,1 km/h (2 Bft)
15.06.2010 18:10 25,8 C 19,6 C 5,9 UV-I 3,3 C 37 % 40 % 94 % 1026,4 hPa 0,0 l/m 17,3 km/h (3 Bft) 2 min 7,1 km/h (2 Bft)
15.06.2010 18:12 25,7 C 19,6 C 4,8 UV-I 2,9 C 37 % 40 % 83 % 1027,1 hPa 0,0 l/m 18,5 km/h (3 Bft) 2 min 18,3 km/h (3 Bft)
15.06.2010 18:14 25,7 C 19,6 C 4,8 UV-I 2,6 C 37 % 41 % 74 % 1027,1 hPa 0,0 l/m 17,7 km/h (3 Bft) 0 min 18,3 km/h (3 Bft)
15.06.2010 18:16 25,6 C 19,5 C 4,8 UV-I 2,5 C 37 % 41 % 71 % 1027,1 hPa 0,0 l/m 17,3 km/h (3 Bft) 0 min 16,7 km/h (3 Bft)
15.06.2010 18:18 25,6 C 19,5 C 3,8 UV-I 2,5 C 37 % 41 % 71 % 1027,1 hPa 0,0 l/m 17,7 km/h (3 Bft) 0 min 13,2 km/h (3 Bft)
15.06.2010 18:20 25,5 C 19,5 C 3,8 UV-I 2,5 C 37 % 41 % 71 % 1027,1 hPa 0,0 l/m 17,3 km/h (3 Bft) 0 min 20,3 km/h (4 Bft)
15.06.2010 18:22 25,5 C 19,5 C 3,7 UV-I 2,6 C 37 % 42 % 74 % 1027,1 hPa 0,0 l/m 15,7 km/h (3 Bft) 0 min 8,7 km/h (2 Bft)
15.06.2010 18:24 25,4 C 19,5 C 3,7 UV-I 2,8 C 37 % 42 % 80 % 1027,1 hPa 0,0 l/m 13,7 km/h (3 Bft) 0 min 6,1 km/h (2 Bft)
15.06.2010 18:26 25,4 C 19,5 C 3,7 UV-I 3,0 C 37 % 41 % 86 % 1027,1 hPa 0,0 l/m 14,1 km/h (3 Bft) 2 min 30,6 km/h (5 Bft)
15.06.2010 18:28 25,2 C 19,5 C 5,0 UV-I 2,9 C 37 % 41 % 83 % 1027,1 hPa 0,0 l/m 14,9 km/h (3 Bft) 2 min 9,3 km/h (2 Bft)
15.06.2010 18:30 25,3 C 19,5 C 5,0 UV-I 2,9 C 37 % 41 % 83 % 1027,1 hPa 0,0 l/m 14,9 km/h (3 Bft) 2 min 9,3 km/h (2 Bft)
15.06.2010 18:32 25,2 C 19,3 C 3,8 UV-I 2,3 C 37 % 40 % 66 % 1025,6 hPa 0,0 l/m 13,7 km/h (3 Bft) 0 min 23,2 km/h (4 Bft)
15.06.2010 18:34 25,2 C 19,3 C 3,8 UV-I 2,0 C 37 % 42 % 57 % 1025,6 hPa 0,0 l/m 14,9 km/h (3 Bft) 0 min 26,7 km/h (4 Bft)
15.06.2010 18:36 25,1 C 19,3 C 3,8 UV-I 1,7 C 37 % 42 % 49 % 1025,6 hPa 0,0 l/m 15,3 km/h (3 Bft) 0 min 22,9 km/h (4 Bft)
15.06.2010 18:38 25,1 C 19,4 C 3,5 UV-I 1,3 C 37 % 42 % 37 % 1025,6 hPa 0,0 l/m 14,9 km/h (3 Bft) 0 min 22,5 km/h (4 Bft)
15.06.2010 18:40 25,0 C 19,3 C 3,5 UV-I 1,1 C 37 % 42 % 31 % 1025,6 hPa 0,0 l/m 16,5 km/h (3 Bft) 0 min 12,6 km/h (3 Bft)
15.06.2010 18:42 25,0 C 19,2 C 3,5 UV-I 0,9 C 37 % 42 % 26 % 1025,6 hPa 0,0 l/m 18,1 km/h (3 Bft) 0 min 15,1 km/h (3 Bft)
15.06.2010 18:44 24,9 C 19,2 C 3,5 UV-I 0,6 C 37 % 41 % 17 % 1025,6 hPa 0,0 l/m 19,3 km/h (3 Bft) 0 min 16,4 km/h (3 Bft)
15.06.2010 18:46 24,9 C 19,2 C 3,5 UV-I 0,4 C 37 % 41 % 11 % 1025,6 hPa 0,0 l/m 20,9 km/h (4 Bft) 0 min 13,5 km/h (3 Bft)
15.06.2010 18:48 24,8 C 19,2 C 3,4 UV-I 0,3 C 37 % 41 % 9 % 1025,6 hPa 0,0 l/m 20,1 km/h (4 Bft) 0 min 17,4 km/h (3 Bft)
15.06.2010 18:50 24,8 C 19,3 C 3,4 UV-I 0,2 C 37 % 39 % 6 % 1025,6 hPa 0,0 l/m 20,1 km/h (4 Bft) 0 min 17,4 km/h (3 Bft)
15.06.2010 18:52 24,7 C 19,2 C 3,3 UV-I 0,3 C 38 % 39 % 9 % 1024,6 hPa 0,0 l/m 17,7 km/h (3 Bft) 0 min 6,1 km/h (2 Bft)
15.06.2010 18:54 24,7 C 19,2 C 3,3 UV-I 0,3 C 38 % 39 % 9 % 1024,6 hPa 0,0 l/m 16,9 km/h (3 Bft) 0 min 19,3 km/h (3 Bft)
15.06.2010 18:56 24,6 C 19,3 C 3,3 UV-I 0,2 C 38 % 38 % 6 % 1024,6 hPa 0,0 l/m 15,7 km/h (3 Bft) 0 min 12,2 km/h (2 Bft)
15.06.2010 18:58 24,6 C 19,3 C 3,4 UV-I 0,0 C 38 % 39 % 0 % 1024,6 hPa 0,0 l/m 13,7 km/h (3 Bft) 0 min 5,8 km/h (2 Bft)
15.06.2010 19:00 24,5 C 19,2 C 3,4 UV-I 0,1 C 38 % 39 % 3 % 1024,6 hPa 0,0 l/m 11,2 km/h (2 Bft) 0 min 13,2 km/h (3 Bft)
15.06.2010 19:02 24,4 C 19,3 C 3,6 UV-I 0,0 C 38 % 40 % 0 % 1024,6 hPa 0,0 l/m 11,2 km/h (2 Bft) 0 min 11,9 km/h (2 Bft)
15.06.2010 19:04 24,4 C 19,3 C 3,6 UV-I 0,0 C 38 % 40 % 0 % 1024,6 hPa 0,0 l/m 11,2 km/h (2 Bft) 0 min 16,7 km/h (3 Bft)
15.06.2010 19:06 24,4 C 19,3 C 3,6 UV-I 0,0 C 38 % 42 % 0 % 1024,6 hPa 0,0 l/m 10,0 km/h (2 Bft) 0 min 5,1 km/h (1 Bft)
15.06.2010 19:08 24,4 C 19,2 C 3,1 UV-I 0,0 C 38 % 41 % 0 % 1024,6 hPa 0,0 l/m 10,0 km/h (2 Bft) 0 min 14,5 km/h (3 Bft)
15.06.2010 19:10 24,3 C 19,3 C 3,1 UV-I 0,0 C 38 % 42 % 0 % 1024,6 hPa 0,0 l/m 10,0 km/h (2 Bft) 0 min 14,5 km/h (3 Bft)
15.06.2010 19:12 24,3 C 19,3 C 3,0 UV-I 0,0 C 38 % 41 % 0 % 1025,1 hPa 0,0 l/m 10,8 km/h (2 Bft) 0 min 19,3 km/h (3 Bft)
15.06.2010 19:14 24,2 C 19,3 C 3,0 UV-I 0,0 C 38 % 40 % 0 % 1025,1 hPa 0,0 l/m 11,2 km/h (2 Bft) 0 min 10,6 km/h (2 Bft)
15.06.2010 19:16 24,2 C 19,2 C 3,0 UV-I 0,0 C 38 % 40 % 0 % 1025,1 hPa 0,0 l/m 10,0 km/h (2 Bft) 0 min 8,4 km/h (2 Bft)
15.06.2010 19:18 24,2 C 19,2 C 3,0 UV-I 0,0 C 38 % 40 % 0 % 1025,1 hPa 0,0 l/m 11,6 km/h (2 Bft) 0 min 20,6 km/h (4 Bft)
15.06.2010 19:20 24,1 C 19,1 C 3,0 UV-I 0,0 C 38 % 40 % 0 % 1025,1 hPa 0,0 l/m 12,8 km/h (3 Bft) 0 min 17,1 km/h (3 Bft)
15.06.2010 19:22 24,1 C 19,1 C 2,9 UV-I 0,0 C 38 % 40 % 0 % 1025,1 hPa 0,0 l/m 15,3 km/h (3 Bft) 0 min 16,4 km/h (3 Bft)
15.06.2010 19:24 24,0 C 19,1 C 2,9 UV-I 0,0 C 38 % 42 % 0 % 1025,1 hPa 0,0 l/m 14,9 km/h (3 Bft) 0 min 4,8 km/h (1 Bft)
15.06.2010 19:26 24,0 C 19,0 C 2,9 UV-I 0,0 C 38 % 42 % 0 % 1025,1 hPa 0,0 l/m 15,3 km/h (3 Bft) 0 min 16,4 km/h (3 Bft)
15.06.2010 19:28 24,0 C 19,0 C 2,8 UV-I 0,0 C 39 % 42 % 0 % 1025,1 hPa 0,0 l/m 16,1 km/h (3 Bft) 0 min 8,7 km/h (2 Bft)
15.06.2010 19:30 24,0 C 19,0 C 2,8 UV-I 0,0 C 39 % 42 % 0 % 1025,1 hPa 0,0 l/m 16,1 km/h (3 Bft) 0 min 8,7 km/h (2 Bft)
15.06.2010 19:32 23,9 C 19,1 C 2,8 UV-I 0,0 C 39 % 40 % 0 % 1025,1 hPa 0,0 l/m 13,7 km/h (3 Bft) 0 min 10,3 km/h (2 Bft)
15.06.2010 19:34 23,9 C 19,1 C 2,8 UV-I 0,0 C 39 % 40 % 0 % 1025,1 hPa 0,0 l/m 12,4 km/h (3 Bft) 0 min 9,7 km/h (2 Bft)
15.06.2010 19:36 23,8 C 19,0 C 2,8 UV-I 0,0 C 38 % 40 % 0 % 1025,1 hPa 0,0 l/m 14,1 km/h (3 Bft) 0 min 14,5 km/h (3 Bft)
15.06.2010 19:38 23,8 C 18,9 C 2,7 UV-I 0,0 C 38 % 40 % 0 % 1025,1 hPa 0,0 l/m 14,9 km/h (3 Bft) 0 min 14,5 km/h (3 Bft)
15.06.2010 19:40 23,8 C 18,9 C 2,7 UV-I 0,0 C 38 % 40 % 0 % 1025,1 hPa 0,0 l/m 14,9 km/h (3 Bft) 0 min 20,6 km/h (4 Bft)
15.06.2010 19:42 23,7 C 18,8 C 2,6 UV-I 0,0 C 38 % 40 % 0 % 1025,1 hPa 0,0 l/m 16,1 km/h (3 Bft) 0 min 21,9 km/h (4 Bft)
15.06.2010 19:44 23,7 C 18,9 C 2,6 UV-I 0,0 C 38 % 40 % 0 % 1025,1 hPa 0,0 l/m 16,9 km/h (3 Bft) 0 min 16,4 km/h (3 Bft)
15.06.2010 19:48 23,6 C 18,9 C 2,5 UV-I 0,0 C 38 % 42 % 0 % 1025,1 hPa 0,0 l/m 15,3 km/h (3 Bft) 0 min 16,7 km/h (3 Bft)
15.06.2010 19:50 23,6 C 18,8 C 2,5 UV-I 0,0 C 38 % 41 % 0 % 1025,1 hPa 0,0 l/m 15,3 km/h (3 Bft) 0 min 12,9 km/h (3 Bft)
15.06.2010 19:52 23,6 C 18,8 C 2,4 UV-I 0,0 C 38 % 40 % 0 % 1024,7 hPa 0,0 l/m 14,9 km/h (3 Bft) 0 min 14,5 km/h (3 Bft)
15.06.2010 19:56 23,5 C 18,9 C 2,4 UV-I 0,0 C 38 % 42 % 0 % 1024,7 hPa 0,0 l/m 11,6 km/h (2 Bft) 0 min 9,0 km/h (2 Bft)
15.06.2010 19:58 23,4 C 18,8 C 2,2 UV-I 0,0 C 37 % 40 % 0 % 1024,7 hPa 0,0 l/m 13,7 km/h (3 Bft) 0 min 22,9 km/h (4 Bft)
15.06.2010 20:03 23,2 C 18,7 C 2,2 UV-I 0,0 C 37 % 41 % 0 % 1024,7 hPa 0,0 l/m 15,3 km/h (3 Bft) 0 min 10,9 km/h (2 Bft)
15.06.2010 20:05 23,3 C 18,6 C 2,2 UV-I 0,0 C 37 % 41 % 0 % 1024,7 hPa 0,0 l/m 16,5 km/h (3 Bft) 0 min 13,2 km/h (3 Bft)
15.06.2010 20:06 23,3 C 18,6 C 2,2 UV-I 0,0 C 37 % 41 % 0 % 1024,7 hPa 0,0 l/m 16,5 km/h (3 Bft) 0 min 13,2 km/h (3 Bft)
15.06.2010 20:08 23,2 C 18,7 C 2,2 UV-I 0,0 C 38 % 43 % 0 % 1024,7 hPa 0,0 l/m 15,7 km/h (3 Bft) 0 min 8,0 km/h (2 Bft)
15.06.2010 20:12 23,2 C 18,7 C 2,0 UV-I 0,0 C 38 % 43 % 0 % 1024,6 hPa 0,0 l/m 12,4 km/h (3 Bft) 0 min 17,7 km/h (3 Bft)
15.06.2010 20:14 23,2 C 18,5 C 2,0 UV-I 0,0 C 38 % 43 % 0 % 1024,6 hPa 0,0 l/m 11,2 km/h (2 Bft) 0 min 10,9 km/h (2 Bft)
15.06.2010 20:16 23,2 C 18,5 C 2,0 UV-I 0,0 C 38 % 42 % 0 % 1024,6 hPa 0,0 l/m 11,6 km/h (2 Bft) 0 min 21,2 km/h (4 Bft)
15.06.2010 20:18 23,1 C 18,4 C 1,9 UV-I 0,0 C 38 % 42 % 0 % 1024,6 hPa 0,0 l/m 11,6 km/h (2 Bft) 0 min 12,6 km/h (3 Bft)
15.06.2010 20:20 23,1 C 18,4 C 1,9 UV-I 0,0 C 38 % 42 % 0 % 1024,6 hPa 0,0 l/m 13,3 km/h (3 Bft) 0 min 19,3 km/h (3 Bft)
15.06.2010 20:22 23,1 C 18,4 C 1,7 UV-I 0,0 C 39 % 42 % 0 % 1024,6 hPa 0,0 l/m 15,3 km/h (3 Bft) 0 min 11,9 km/h (2 Bft)
15.06.2010 20:24 23,1 C 18,3 C 1,7 UV-I 0,0 C 39 % 42 % 0 % 1024,6 hPa 0,0 l/m 16,1 km/h (3 Bft) 0 min 16,4 km/h (3 Bft)
15.06.2010 20:26 23,1 C 18,3 C 1,7 UV-I 0,0 C 39 % 43 % 0 % 1024,6 hPa 0,0 l/m 16,9 km/h (3 Bft) 0 min 6,8 km/h (2 Bft)
15.06.2010 20:28 23,1 C 18,3 C 1,6 UV-I 0,0 C 39 % 43 % 0 % 1024,6 hPa 0,0 l/m 17,3 km/h (3 Bft) 0 min 12,2 km/h (2 Bft)
15.06.2010 20:30 23,1 C 18,2 C 1,6 UV-I 0,0 C 39 % 42 % 0 % 1024,6 hPa 0,0 l/m 17,3 km/h (3 Bft) 0 min 12,2 km/h (2 Bft)
15.06.2010 20:32 23,0 C 18,1 C 1,4 UV-I 0,0 C 39 % 41 % 0 % 1024,6 hPa 0,0 l/m 17,3 km/h (3 Bft) 0 min 16,4 km/h (3 Bft)
15.06.2010 20:34 23,0 C 18,0 C 1,4 UV-I 0,0 C 39 % 42 % 0 % 1024,6 hPa 0,0 l/m 16,9 km/h (3 Bft) 0 min 22,9 km/h (4 Bft)
15.06.2010 20:36 23,0 C 18,0 C 1,4 UV-I 0,0 C 39 % 42 % 0 % 1024,6 hPa 0,0 l/m 16,5 km/h (3 Bft) 0 min 14,5 km/h (3 Bft)
15.06.2010 20:38 23,0 C 18,0 C 1,4 UV-I 0,0 C 39 % 42 % 0 % 1024,6 hPa 0,0 l/m 15,7 km/h (3 Bft) 0 min 7,7 km/h (2 Bft)
15.06.2010 20:40 23,0 C 18,0 C 1,4 UV-I 0,0 C 39 % 42 % 0 % 1024,6 hPa 0,0 l/m 15,7 km/h (3 Bft) 0 min 15,4 km/h (3 Bft)
15.06.2010 20:42 23,0 C 18,0 C 1,3 UV-I 0,0 C 39 % 44 % 0 % 1024,6 hPa 0,0 l/m 15,3 km/h (3 Bft) 0 min 17,7 km/h (3 Bft)
15.06.2010 20:44 22,9 C 17,9 C 1,3 UV-I 0,0 C 39 % 44 % 0 % 1024,6 hPa 0,0 l/m 16,1 km/h (3 Bft) 0 min 17,7 km/h (3 Bft)
15.06.2010 20:46 22,9 C 17,9 C 1,3 UV-I 0,0 C 39 % 44 % 0 % 1024,6 hPa 0,0 l/m 14,9 km/h (3 Bft) 0 min 9,0 km/h (2 Bft)
15.06.2010 20:48 22,9 C 17,9 C 1,2 UV-I 0,0 C 39 % 45 % 0 % 1024,6 hPa 0,0 l/m 14,5 km/h (3 Bft) 0 min 18,3 km/h (3 Bft)
15.06.2010 20:50 22,9 C 17,7 C 1,2 UV-I 0,0 C 39 % 45 % 0 % 1024,6 hPa 0,0 l/m 14,5 km/h (3 Bft) 0 min 18,3 km/h (3 Bft)
15.06.2010 20:52 22,8 C 17,7 C 1,0 UV-I 0,0 C 39 % 45 % 0 % 1024,6 hPa 0,0 l/m 14,9 km/h (3 Bft) 0 min 19,3 km/h (3 Bft)
15.06.2010 20:54 22,8 C 17,6 C 1,0 UV-I 0,0 C 39 % 45 % 0 % 1024,6 hPa 0,0 l/m 13,3 km/h (3 Bft) 0 min 20,0 km/h (4 Bft)
15.06.2010 20:56 22,8 C 17,5 C 1,0 UV-I 0,0 C 39 % 46 % 0 % 1024,6 hPa 0,0 l/m 13,3 km/h (3 Bft) 0 min 14,5 km/h (3 Bft)
15.06.2010 20:58 22,8 C 17,5 C 1,0 UV-I 0,0 C 39 % 46 % 0 % 1024,6 hPa 0,0 l/m 14,9 km/h (3 Bft) 0 min 20,3 km/h (4 Bft)
15.06.2010 21:00 22,8 C 17,4 C 1,0 UV-I 0,0 C 39 % 46 % 0 % 1024,6 hPa 0,0 l/m 15,3 km/h (3 Bft) 0 min 16,7 km/h (3 Bft)
15.06.2010 21:02 22,8 C 17,5 C 0,9 UV-I 0,0 C 40 % 47 % 0 % 1024,6 hPa 0,0 l/m 14,9 km/h (3 Bft) 0 min 9,0 km/h (2 Bft)
15.06.2010 21:03 22,7 C 17,4 C 0,9 UV-I 0,0 C 39 % 47 % 0 % 1024,6 hPa 0,0 l/m 14,9 km/h (3 Bft) 0 min 12,9 km/h (3 Bft)
15.06.2010 21:08 22,6 C 17,3 C 0,8 UV-I 0,0 C 40 % 47 % 0 % 1024,6 hPa 0,0 l/m 14,9 km/h (3 Bft) 0 min 17,4 km/h (3 Bft)
15.06.2010 21:10 22,6 C 17,3 C 0,8 UV-I 0,0 C 40 % 47 % 0 % 1024,6 hPa 0,0 l/m 14,9 km/h (3 Bft) 0 min 17,4 km/h (3 Bft)
15.06.2010 21:12 22,6 C 17,2 C 0,7 UV-I 0,0 C 40 % 48 % 0 % 1024,8 hPa 0,0 l/m 15,7 km/h (3 Bft) 0 min 24,5 km/h (4 Bft)
15.06.2010 21:14 22,6 C 17,1 C 0,7 UV-I 0,0 C 40 % 48 % 0 % 1024,8 hPa 0,0 l/m 16,1 km/h (3 Bft) 0 min 11,6 km/h (2 Bft)
15.06.2010 21:16 22,6 C 17,0 C 0,7 UV-I 0,0 C 40 % 48 % 0 % 1024,8 hPa 0,0 l/m 14,9 km/h (3 Bft) 0 min 9,3 km/h (2 Bft)
15.06.2010 21:18 22,5 C 17,1 C 0,6 UV-I 0,0 C 40 % 48 % 0 % 1024,8 hPa 0,0 l/m 14,9 km/h (3 Bft) 0 min 11,9 km/h (2 Bft)
15.06.2010 21:20 22,5 C 16,9 C 0,6 UV-I 0,0 C 40 % 49 % 0 % 1024,8 hPa 0,0 l/m 13,7 km/h (3 Bft) 0 min 12,6 km/h (3 Bft)
15.06.2010 21:22 22,5 C 16,8 C 0,4 UV-I 0,0 C 40 % 49 % 0 % 1024,8 hPa 0,0 l/m 13,3 km/h (3 Bft) 0 min 12,9 km/h (3 Bft)
15.06.2010 21:24 22,4 C 16,8 C 0,4 UV-I 0,0 C 40 % 49 % 0 % 1024,8 hPa 0,0 l/m 11,6 km/h (2 Bft) 0 min 9,7 km/h (2 Bft)
15.06.2010 21:26 22,4 C 16,8 C 0,4 UV-I 0,0 C 40 % 49 % 0 % 1024,8 hPa 0,0 l/m 12,4 km/h (3 Bft) 0 min 20,3 km/h (4 Bft)
15.06.2010 21:28 22,4 C 16,7 C 0,4 UV-I 0,0 C 40 % 49 % 0 % 1024,8 hPa 0,0 l/m 12,8 km/h (3 Bft) 0 min 10,6 km/h (2 Bft)
15.06.2010 21:30 22,4 C 16,6 C 0,4 UV-I 0,0 C 40 % 49 % 0 % 1024,8 hPa 0,0 l/m 12,8 km/h (3 Bft) 0 min 10,6 km/h (2 Bft)
15.06.2010 21:32 22,4 C 16,6 C 0,3 UV-I 0,0 C 40 % 49 % 0 % 1024,9 hPa 0,0 l/m 13,3 km/h (3 Bft) 0 min 9,7 km/h (2 Bft)
15.06.2010 21:34 22,4 C 16,6 C 0,3 UV-I 0,0 C 40 % 49 % 0 % 1024,9 hPa 0,0 l/m 13,3 km/h (3 Bft) 0 min 17,7 km/h (3 Bft)
15.06.2010 21:36 22,4 C 16,5 C 0,3 UV-I 0,0 C 40 % 50 % 0 % 1024,9 hPa 0,0 l/m 13,7 km/h (3 Bft) 0 min 13,5 km/h (3 Bft)
15.06.2010 21:38 22,2 C 16,5 C 0,3 UV-I 0,0 C 40 % 50 % 0 % 1024,9 hPa 0,0 l/m 13,7 km/h (3 Bft) 0 min 10,3 km/h (2 Bft)
15.06.2010 21:40 22,2 C 16,5 C 0,3 UV-I 0,0 C 40 % 50 % 0 % 1024,9 hPa 0,0 l/m 13,7 km/h (3 Bft) 0 min 12,9 km/h (3 Bft)
15.06.2010 21:42 22,3 C 16,4 C 0,2 UV-I 0,0 C 40 % 50 % 0 % 1024,9 hPa 0,0 l/m 13,3 km/h (3 Bft) 0 min 16,1 km/h (3 Bft)
15.06.2010 21:44 22,3 C 16,3 C 0,2 UV-I 0,0 C 40 % 50 % 0 % 1024,9 hPa 0,0 l/m 14,5 km/h (3 Bft) 0 min 20,3 km/h (4 Bft)
15.06.2010 21:46 22,2 C 16,2 C 0,2 UV-I 0,0 C 41 % 51 % 0 % 1024,9 hPa 0,0 l/m 13,7 km/h (3 Bft) 0 min 9,3 km/h (2 Bft)
15.06.2010 21:48 22,2 C 16,3 C 0,2 UV-I 0,0 C 41 % 51 % 0 % 1024,9 hPa 0,0 l/m 13,7 km/h (3 Bft) 0 min 9,7 km/h (2 Bft)
15.06.2010 21:50 22,2 C 16,1 C 0,2 UV-I 0,0 C 41 % 51 % 0 % 1024,9 hPa 0,0 l/m 13,7 km/h (3 Bft) 0 min 9,7 km/h (2 Bft)
15.06.2010 21:52 22,2 C 16,1 C 0,1 UV-I 0,0 C 41 % 51 % 0 % 1024,9 hPa 0,0 l/m 13,7 km/h (3 Bft) 0 min 9,7 km/h (2 Bft)
15.06.2010 21:54 22,2 C 16,0 C 0,1 UV-I 0,0 C 41 % 52 % 0 % 1024,9 hPa 0,0 l/m 13,3 km/h (3 Bft) 0 min 11,3 km/h (2 Bft)
15.06.2010 21:56 22,2 C 16,0 C 0,1 UV-I 0,0 C 41 % 52 % 0 % 1024,9 hPa 0,0 l/m 11,2 km/h (2 Bft) 0 min 7,4 km/h (2 Bft)
15.06.2010 21:58 22,1 C 15,9 C 0,1 UV-I 0,0 C 41 % 53 % 0 % 1024,9 hPa 0,0 l/m 11,2 km/h (2 Bft) 0 min 9,0 km/h (2 Bft)
15.06.2010 22:00 22,1 C 15,9 C 0,1 UV-I 0,0 C 41 % 53 % 0 % 1024,9 hPa 0,0 l/m 10,8 km/h (2 Bft) 0 min 17,1 km/h (3 Bft)
15.06.2010 22:02 22,1 C 15,9 C 0,1 UV-I 0,0 C 41 % 53 % 0 % 1024,9 hPa 0,0 l/m 10,8 km/h (2 Bft) 0 min 10,9 km/h (2 Bft)
15.06.2010 22:04 22,1 C 15,8 C 0,1 UV-I 0,0 C 41 % 53 % 0 % 1024,9 hPa 0,0 l/m 10,4 km/h (2 Bft) 0 min 18,0 km/h (3 Bft)
15.06.2010 22:06 22,1 C 15,7 C 0,1 UV-I 0,0 C 41 % 54 % 0 % 1024,9 hPa 0,0 l/m 10,4 km/h (2 Bft) 0 min 10,9 km/h (2 Bft)
15.06.2010 22:08 22,0 C 15,7 C 0,1 UV-I 0,0 C 41 % 54 % 0 % 1024,9 hPa 0,0 l/m 10,8 km/h (2 Bft) 0 min 7,1 km/h (2 Bft)
15.06.2010 22:10 22,0 C 15,6 C 0,1 UV-I 0,0 C 41 % 54 % 0 % 1024,9 hPa 0,0 l/m 10,8 km/h (2 Bft) 0 min 7,1 km/h (2 Bft)
15.06.2010 22:12 22,0 C 15,7 C 0,0 UV-I 0,0 C 41 % 54 % 0 % 1025,2 hPa 0,0 l/m 11,2 km/h (2 Bft) 0 min 20,3 km/h (4 Bft)
15.06.2010 22:14 22,0 C 15,6 C 0,0 UV-I 0,0 C 41 % 54 % 0 % 1025,2 hPa 0,0 l/m 11,2 km/h (2 Bft) 0 min 7,7 km/h (2 Bft)
15.06.2010 22:16 22,0 C 15,5 C 0,0 UV-I 0,0 C 41 % 55 % 0 % 1025,2 hPa 0,0 l/m 10,8 km/h (2 Bft) 0 min 8,4 km/h (2 Bft)
15.06.2010 22:18 22,0 C 15,5 C 0,0 UV-I 0,0 C 41 % 55 % 0 % 1025,2 hPa 0,0 l/m 11,2 km/h (2 Bft) 0 min 15,1 km/h (3 Bft)
15.06.2010 22:20 22,0 C 15,4 C 0,0 UV-I 0,0 C 41 % 55 % 0 % 1025,2 hPa 0,0 l/m 11,6 km/h (2 Bft) 0 min 13,2 km/h (3 Bft)
15.06.2010 22:22 22,0 C 15,5 C 0,0 UV-I 0,0 C 41 % 55 % 0 % 1025,2 hPa 0,0 l/m 12,0 km/h (2 Bft) 0 min 9,7 km/h (2 Bft)
15.06.2010 22:24 21,9 C 15,3 C 0,0 UV-I 0,0 C 41 % 55 % 0 % 1025,2 hPa 0,0 l/m 12,0 km/h (2 Bft) 0 min 11,3 km/h (2 Bft)
15.06.2010 22:26 21,9 C 15,3 C 0,0 UV-I 0,0 C 42 % 56 % 0 % 1025,2 hPa 0,0 l/m 12,0 km/h (2 Bft) 0 min 10,6 km/h (2 Bft)
15.06.2010 22:28 21,9 C 15,2 C 0,0 UV-I 0,0 C 42 % 56 % 0 % 1025,2 hPa 0,0 l/m 13,7 km/h (3 Bft) 0 min 19,0 km/h (3 Bft)
15.06.2010 22:30 21,9 C 15,2 C 0,0 UV-I 0,0 C 42 % 56 % 0 % 1025,2 hPa 0,0 l/m 13,7 km/h (3 Bft) 0 min 19,0 km/h (3 Bft)
15.06.2010 22:32 21,9 C 15,3 C 0,0 UV-I 0,0 C 42 % 56 % 0 % 1025,4 hPa 0,0 l/m 13,3 km/h (3 Bft) 0 min 12,2 km/h (2 Bft)
15.06.2010 22:34 21,8 C 15,2 C 0,0 UV-I 0,0 C 42 % 56 % 0 % 1025,4 hPa 0,0 l/m 12,4 km/h (3 Bft) 0 min 7,1 km/h (2 Bft)
15.06.2010 22:36 21,8 C 15,1 C 0,0 UV-I 0,0 C 42 % 57 % 0 % 1025,4 hPa 0,0 l/m 12,8 km/h (3 Bft) 0 min 11,6 km/h (2 Bft)
15.06.2010 22:38 21,8 C 15,1 C 0,0 UV-I 0,0 C 42 % 57 % 0 % 1025,4 hPa 0,0 l/m 11,6 km/h (2 Bft) 0 min 9,0 km/h (2 Bft)
15.06.2010 22:40 21,8 C 15,1 C 0,0 UV-I 0,0 C 42 % 57 % 0 % 1025,4 hPa 0,0 l/m 10,8 km/h (2 Bft) 0 min 10,0 km/h (2 Bft)
15.06.2010 22:42 21,8 C 15,1 C 0,0 UV-I 0,0 C 42 % 57 % 0 % 1025,4 hPa 0,0 l/m 10,8 km/h (2 Bft) 0 min 13,8 km/h (3 Bft)
15.06.2010 22:44 21,8 C 14,9 C 0,0 UV-I 0,0 C 42 % 57 % 0 % 1025,4 hPa 0,0 l/m 11,6 km/h (2 Bft) 0 min 11,9 km/h (2 Bft)
15.06.2010 22:46 21,8 C 14,9 C 0,0 UV-I 0,0 C 42 % 58 % 0 % 1025,4 hPa 0,0 l/m 12,4 km/h (3 Bft) 0 min 10,0 km/h (2 Bft)
15.06.2010 22:48 21,8 C 14,8 C 0,0 UV-I 0,0 C 42 % 58 % 0 % 1025,4 hPa 0,0 l/m 12,0 km/h (2 Bft) 0 min 7,4 km/h (2 Bft)
15.06.2010 22:50 21,8 C 14,8 C 0,0 UV-I 0,0 C 42 % 58 % 0 % 1025,4 hPa 0,0 l/m 12,0 km/h (2 Bft) 0 min 7,4 km/h (2 Bft)
15.06.2010 22:52 21,7 C 14,8 C 0,0 UV-I 0,0 C 42 % 58 % 0 % 1025,5 hPa 0,0 l/m 10,8 km/h (2 Bft) 0 min 10,6 km/h (2 Bft)
15.06.2010 22:54 21,7 C 14,7 C 0,0 UV-I 0,0 C 42 % 58 % 0 % 1025,5 hPa 0,0 l/m 9,6 km/h (2 Bft) 0 min 6,4 km/h (2 Bft)
15.06.2010 22:56 21,7 C 14,7 C 0,0 UV-I 0,0 C 42 % 58 % 0 % 1025,5 hPa 0,0 l/m 8,8 km/h (2 Bft) 0 min 7,4 km/h (2 Bft)
15.06.2010 22:58 21,7 C 14,6 C 0,0 UV-I 0,0 C 42 % 58 % 0 % 1025,5 hPa 0,0 l/m 8,0 km/h (2 Bft) 0 min 9,7 km/h (2 Bft)
15.06.2010 23:00 21,7 C 14,7 C 0,0 UV-I 0,0 C 42 % 59 % 0 % 1025,5 hPa 0,0 l/m 8,4 km/h (2 Bft) 0 min 11,3 km/h (2 Bft)
15.06.2010 23:02 21,7 C 14,6 C 0,0 UV-I 0,0 C 42 % 59 % 0 % 1025,5 hPa 0,0 l/m 8,8 km/h (2 Bft) 0 min 9,3 km/h (2 Bft)
15.06.2010 23:04 21,7 C 14,5 C 0,0 UV-I 0,0 C 42 % 59 % 0 % 1025,5 hPa 0,0 l/m 8,8 km/h (2 Bft) 0 min 8,7 km/h (2 Bft)
15.06.2010 23:06 21,6 C 14,4 C 0,0 UV-I 0,0 C 42 % 60 % 0 % 1025,5 hPa 0,0 l/m 10,0 km/h (2 Bft) 0 min 8,7 km/h (2 Bft)
15.06.2010 23:08 21,6 C 14,4 C 0,1 UV-I 0,0 C 43 % 60 % 0 % 1025,5 hPa 0,0 l/m 10,4 km/h (2 Bft) 0 min 14,2 km/h (3 Bft)
15.06.2010 23:10 21,6 C 14,4 C 0,1 UV-I 0,0 C 42 % 60 % 0 % 1025,5 hPa 0,0 l/m 10,4 km/h (2 Bft) 0 min 14,2 km/h (3 Bft)
15.06.2010 23:12 21,6 C 14,3 C 0,0 UV-I 0,0 C 43 % 60 % 0 % 1025,5 hPa 0,0 l/m 10,0 km/h (2 Bft) 0 min 10,0 km/h (2 Bft)
15.06.2010 23:14 21,6 C 14,3 C 0,0 UV-I 0,0 C 43 % 61 % 0 % 1025,5 hPa 0,0 l/m 10,4 km/h (2 Bft) 0 min 13,5 km/h (3 Bft)
15.06.2010 23:16 21,6 C 14,3 C 0,0 UV-I 0,0 C 43 % 61 % 0 % 1025,5 hPa 0,0 l/m 11,2 km/h (2 Bft) 0 min 10,3 km/h (2 Bft)
15.06.2010 23:18 21,6 C 14,3 C 0,1 UV-I 0,0 C 43 % 61 % 0 % 1025,5 hPa 0,0 l/m 11,6 km/h (2 Bft) 0 min 13,2 km/h (3 Bft)
15.06.2010 23:20 21,6 C 14,1 C 0,1 UV-I 0,0 C 43 % 61 % 0 % 1025,5 hPa 0,0 l/m 12,0 km/h (2 Bft) 0 min 14,2 km/h (3 Bft)
15.06.2010 23:22 21,6 C 14,1 C 0,0 UV-I 0,0 C 43 % 61 % 0 % 1025,5 hPa 0,0 l/m 12,8 km/h (3 Bft) 0 min 9,7 km/h (2 Bft)
15.06.2010 23:24 21,6 C 14,1 C 0,0 UV-I 0,0 C 43 % 62 % 0 % 1025,5 hPa 0,0 l/m 12,8 km/h (3 Bft) 0 min 8,7 km/h (2 Bft)
15.06.2010 23:26 21,5 C 14,0 C 0,0 UV-I 0,0 C 43 % 62 % 0 % 1025,5 hPa 0,0 l/m 12,8 km/h (3 Bft) 0 min 8,4 km/h (2 Bft)
15.06.2010 23:28 21,6 C 14,0 C 0,0 UV-I 0,0 C 43 % 62 % 0 % 1025,5 hPa 0,0 l/m 11,6 km/h (2 Bft) 0 min 8,4 km/h (2 Bft)
15.06.2010 23:30 21,5 C 14,1 C 0,0 UV-I 0,0 C 43 % 62 % 0 % 1025,5 hPa 0,0 l/m 11,6 km/h (2 Bft) 0 min 8,4 km/h (2 Bft)
15.06.2010 23:32 21,5 C 14,0 C 0,0 UV-I 0,0 C 43 % 62 % 0 % 1025,6 hPa 0,0 l/m 12,0 km/h (2 Bft) 0 min 10,9 km/h (2 Bft)
15.06.2010 23:34 21,5 C 13,9 C 0,0 UV-I 0,0 C 43 % 62 % 0 % 1025,6 hPa 0,0 l/m 12,0 km/h (2 Bft) 0 min 14,2 km/h (3 Bft)
15.06.2010 23:36 21,5 C 13,9 C 0,0 UV-I 0,0 C 43 % 62 % 0 % 1025,6 hPa 0,0 l/m 11,6 km/h (2 Bft) 0 min 7,7 km/h (2 Bft)
15.06.2010 23:38 21,5 C 13,9 C 0,0 UV-I 0,0 C 43 % 62 % 0 % 1025,6 hPa 0,0 l/m 11,6 km/h (2 Bft) 0 min 10,6 km/h (2 Bft)
15.06.2010 23:40 21,5 C 13,9 C 0,0 UV-I 0,0 C 43 % 63 % 0 % 1025,6 hPa 0,0 l/m 12,4 km/h (3 Bft) 0 min 9,7 km/h (2 Bft)
15.06.2010 23:42 21,5 C 13,9 C 0,0 UV-I 0,0 C 43 % 63 % 0 % 1025,6 hPa 0,0 l/m 11,6 km/h (2 Bft) 0 min 9,3 km/h (2 Bft)
15.06.2010 23:44 21,4 C 13,9 C 0,0 UV-I 0,0 C 43 % 63 % 0 % 1025,6 hPa 0,0 l/m 11,2 km/h (2 Bft) 0 min 12,2 km/h (2 Bft)
15.06.2010 23:46 21,4 C 13,8 C 0,0 UV-I 0,0 C 43 % 63 % 0 % 1025,6 hPa 0,0 l/m 11,6 km/h (2 Bft) 0 min 21,6 km/h (4 Bft)
15.06.2010 23:48 21,4 C 13,7 C 0,0 UV-I 0,0 C 43 % 63 % 0 % 1025,6 hPa 0,0 l/m 12,4 km/h (3 Bft) 0 min 13,2 km/h (3 Bft)
15.06.2010 23:50 21,4 C 13,7 C 0,0 UV-I 0,0 C 43 % 63 % 0 % 1025,6 hPa 0,0 l/m 12,4 km/h (3 Bft) 0 min 13,2 km/h (3 Bft)
15.06.2010 23:52 21,4 C 13,6 C 0,0 UV-I 0,0 C 43 % 63 % 0 % 1025,8 hPa 0,0 l/m 12,8 km/h (3 Bft) 0 min 8,4 km/h (2 Bft)
15.06.2010 23:54 21,4 C 13,6 C 0,0 UV-I 0,0 C 43 % 63 % 0 % 1025,8 hPa 0,0 l/m 14,5 km/h (3 Bft) 0 min 12,9 km/h (3 Bft)
15.06.2010 23:58 21,4 C 13,6 C 0,0 UV-I 0,0 C 43 % 64 % 0 % 1025,8 hPa 0,0 l/m 13,7 km/h (3 Bft) 0 min 13,2 km/h (3 Bft)
_ Min-Zeit 06:38 06:18 00:00 00:00 17:02 17:12 00:00 00:00 - 08:02 - 08:02
Minimum _ 19,9 C 11,5 C 0,0 UV-I 0,0 C 37 % 38 % 0 % 1020,5 hPa - 6,0 km/h (2 Bft) - 0,0 km/h (0 Bft)
_ Max-Zeit 17:16 16:54 11:02 11:00 03:32 03:42 08:52 16:52 00:00 18:46 08:48 11:40
Maximum _ 26,0 C 20,5 C 14,5 UV-I 6,5 C 54 % 83 % 100 % 1029,4 hPa 0,0 l/m 20,9 km/h
W-SW (4 Bft)
2 min 36,4 km/h
W-SW (5 Bft)
Durchschnitt _ 21,9 C 16,2 C 4,5 UV-I 1,8 C 46 % 60 % 43 % 1024,5 hPa #0,0 l/m 12,8 km/h (3 Bft) #8:08 h 13,8 km/h (3 Bft)
© 2012 W. Hausmann